GFSWCAN_2pvu_pres_069.txt.gz
Presure
290 287 285 284 283 281 284 273 270 269 270 273 278 279 280 299 320 338 367 363 369 345 373 340 311 308 310 306 304 268 268 262 274 268 254 253 255 257 255 253 256 257 259 264 260 271 247 274 271 252 257 246 239 236
272 270 270 269 271 269 272 276 274 272 273 271 271 274 280 279 303 320 332 355 374 352 319 335 335 326 328 326 323 325 317 183 126 261 259 260 266 265 260 262 268 263 270 264 263 124 147 261 265 275 239 273 283 286
269 271 282 290 348 350 358 364 301 281 275 269 269 275 275 282 275 298 311 319 331 333 329 320 306 331 325 320 169 101 319 290 276 269 191 265 266 263 270 278 313 313 307 309 268 305 306 269 274 166 271 263 268 278
309 331 328 329 332 374 380 393 380 366 366 336 276 272 275 274 280 264 288 306 312 322 302 322 323 301 311 314 312 303 297 253 270 263 261 274 154 305 300 294 207 250 295 292 292 294 287 288 301 303 307 311 315 285
322 320 321 355 354 346 346 344 351 374 382 370 445 281 268 277 277 277 268 277 297 295 316 296 310 297 262 294 186 103 193 301 192 310 295 233 229 128 269 272 277 276 283 287 287 283 281 191 289 297 223 300 308 320
308 365 341 338 337 342 342 346 347 353 368 367 381 315 281 263 273 275 283 271 269 280 298 300 293 297 296 293 134 293 105 292 117 293 287 187 274 276 276 129 131 272 271 250 270 268 273 276 273 280 288 299 304 317
336 333 336 374 404 363 384 394 430 368 361 372 360 388 304 274 269 265 272 263 267 270 270 266 295 298 291 286 283 285 239 134 285 288 166 288 281 283 278 171 262 267 269 266 269 270 266 267 273 277 285 296 305 309
328 324 394 380 370 395 407 389 406 371 366 382 381 361 343 302 271 271 270 258 265 262 257 226 261 276 270 275 283 270 216 273 199 274 273 271 269 277 276 265 260 263 269 273 262 264 264 275 293 316 334 396 316 299
312 326 382 371 380 380 407 401 396 375 364 366 380 377 356 337 297 280 274 269 281 272 261 254 262 262 263 261 265 263 264 115 264 264 261 251 163 269 118 133 168 129 266 271 277 291 315 305 343 352 370 370 341 312
319 313 318 378 369 361 351 399 369 363 339 350 362 374 367 342 352 307 278 276 275 279 277 271 272 269 265 261 257 261 208 248 248 249 250 259 254 272 269 271 139 182 283 290 289 296 297 319 328 349 344 302 304 286
313 321 321 327 328 340 367 370 360 344 352 361 378 364 377 357 347 346 364 315 299 287 284 284 280 278 278 186 275 277 155 275 275 220 197 282 221 267 284 289 290 292 297 301 264 336 275 314 332 330 324 313 243 277
301 306 310 321 328 320 317 364 361 366 369 362 361 362 363 372 375 362 375 350 355 385 331 309 302 301 297 146 298 297 318 294 296 296 299 299 296 295 302 305 331 362 320 341 329 240 219 311 146 254 292 306 297 248
296 301 298 308 311 317 325 334 332 310 311 359 362 351 347 343 350 360 365 372 373 367 370 369 355 358 359 361 366 360 351 349 349 347 346 346 356 339 344 346 345 349 338 325 319 305 151 180 160 203 176 296 276 271
286 294 296 296 303 308 312 329 323 324 318 317 315 320 323 325 322 319 321 336 342 339 335 321 325 321 321 321 321 321 327 327 325 325 333 339 357 367 358 322 312 312 289 297 293 284 280 287 271 263 263 287 273 263
288 275 288 293 297 302 305 309 324 332 333 329 329 332 331 330 334 313 309 305 303 300 295 297 298 296 293 292 288 287 286 288 286 285 284 288 292 292 295 295 293 289 285 279 277 278 273 267 278 277 269 261 267 277
299 296 278 278 292 301 292 296 304 302 305 303 302 298 294 294 291 290 288 285 284 281 279 278 273 271 272 273 266 269 268 265 268 264 264 267 267 269 271 267 262 262 265 270 276 274 273 282 274 262 264 291 272 281
289 296 303 304 276 295 298 299 297 291 291 290 284 285 286 286 280 276 271 272 276 288 291 289 286 284 292 289 285 286 282 280 281 283 289 298 311 300 283 272 272 262 260 256 261 262 264 262 267 268 258 297 290 300
294 297 307 310 322 273 286 282 282 281 278 278 275 273 272 274 290 288 286 282 278 279 283 276 275 270 263 267 266 265 265 267 265 266 266 268 266 263 262 260 262 263 269 272 276 281 282 284 282 284 298 295 299 306
297 307 327 307 334 314 274 275 274 274 283 293 294 293 291 281 271 270 266 262 261 255 257 253 251 247 248 246 248 249 247 245 247 249 252 252 252 253 259 263 259 259 264 266 268 268 272 274 274 272 269 266 269 268
277 296 329 335 302 323 291 283 289 288 280 275 273 270 262 260 253 248 249 248 248 246 242 242 250 255 252 244 240 243 249 247 251 252 252 253 255 257 260 261 260 257 261 262 262 263 263 264 264 265 265 265 266 267
260 253 256 286 292 292 282 275 269 263 258 242 254 256 248 251 246 246 235 247 249 253 244 242 243 243 242 245 239 238 236 236 235 234 245 246 252 255 259 260 262 270 271 267 264 269 272 272 274 277 274 274 274 275
252 239 237 238 245 249 238 250 242 237 255 253 245 243 243 243 247 244 243 234 236 241 233 230 247 242 229 229 247 248 248 249 249 251 254 254 249 254 263 267 271 279 287 289 290 291 293 291 291 292 292 294 295 295
242 244 240 247 245 248 251 257 238 252 234 251 242 245 246 243 244 249 248 240 240 239 246 247 246 244 240 240 240 245 250 257 259 262 259 263 263 269 278 289 295 304 308 313 315 321 324 326 327 329 328 327 328 330
246 240 241 250 257 255 255 247 247 244 245 243 247 252 248 247 245 244 245 244 243 240 235 239 243 239 240 247 251 254 260 252 250 263 267 272 288 293 312 430 455 470 463 457 455 454 450 446 442 436 437 431 427 421
240 245 250 253 256 256 239 241 249 239 243 247 243 248 248 247 247 250 246 240 246 248 241 239 248 246 239 247 247 250 255 261 264 277 291 309 484 474 464 453 440 429 424 415 408 483 470 456 442 432 417 406 401 397
242 232 236 241 235 238 236 241 245 245 244 241 240 243 246 243 240 238 239 242 242 235 238 231 236 245 246 248 250 260 267 293 328 384 407 371 459 450 434 420 414 410 497 488 476 462 449 436 423 411 403 395 391 390
239 240 235 237 238 230 233 241 240 243 245 245 243 239 239 237 235 240 237 237 239 243 226 240 239 241 250 259 274 284 350 376 353 345 440 458 444 424 407 398 393 395 454 443 433 424 415 406 397 390 385 379 371 366
245 243 236 243 242 231 230 241 240 237 233 239 239 239 232 233 239 242 240 240 242 245 250 242 238 254 279 282 306 392 362 346 346 457 455 442 422 406 393 385 388 383 381 376 377 374 370 365 361 358 353 349 346 341
231 236 233 238 238 236 232 234 238 233 236 236 238 233 238 239 240 240 239 246 253 246 243 249 258 282 301 309 383 357 345 346 480 462 440 431 411 396 384 374 375 368 368 361 361 354 352 350 347 343 339 337 334 332
247 238 238 231 230 233 238 236 235 235 239 243 237 237 239 243 243 242 251 252 245 259 267 263 285 308 312 379 355 344 343 492 475 452 430 417 405 393 381 371 369 364 363 357 353 351 348 347 344 343 342 343 343 344
255 255 255 252 247 240 238 238 240 243 242 240 242 242 247 246 246 255 257 263 266 269 268 292 310 302 375 356 343 338 486 481 463 439 422 408 399 389 380 370 367 357 356 357 351 349 350 350 347 344 343 342 341 342
252 251 249 249 251 247 245 246 244 245 245 245 247 247 246 256 257 263 268 263 270 291 298 313 299 366 358 345 335 465 459 457 444 430 413 403 394 388 377 372 358 364 354 345 351 352 348 344 344 345 345 344 342 339
251 247 245 243 244 246 250 249 249 246 246 249 251 257 256 264 267 262 266 274 295 290 311 301 361 354 339 340 443 446 422 395 369 357 352 356 389 388 374 366 354 341 338 337 347 347 346 348 349 348 347 344 342 342

GFSWCAN_2pvu_pres_072.txt.gz
Presure
298 293 292 290 290 290 291 291 290 290 286 285 281 277 276 288 291 320 335 365 344 351 348 357 356 352 353 336 303 314 237 148 271 283 293 284 277 270 266 260 243 238 246 248 245 243 245 255 256 242 233 227 227 231
283 279 277 277 277 279 280 281 281 282 285 282 277 274 277 278 278 294 319 358 343 345 344 351 347 344 340 322 306 304 307 290 279 266 263 273 279 285 271 267 258 262 261 261 263 264 263 259 254 247 246 247 249 249
274 270 270 271 270 273 276 275 274 276 276 270 266 267 272 276 274 281 308 352 342 347 350 346 335 332 332 317 306 300 305 196 316 255 278 253 268 269 271 273 276 277 270 266 266 273 275 277 284 283 281 270 279 271
265 275 290 310 328 336 336 337 323 304 274 269 269 270 274 272 270 269 284 331 383 347 371 348 331 324 313 303 298 109 184 302 311 226 282 261 260 272 264 151 254 260 263 263 259 256 258 265 196 266 238 268 266 264
298 319 326 323 331 355 373 364 367 352 371 398 357 273 271 269 267 268 271 303 327 322 320 317 326 314 304 150 295 300 305 310 317 333 336 269 263 261 128 262 260 259 259 263 258 255 254 265 274 269 268 267 266 268
323 320 358 355 353 353 341 342 345 341 341 357 380 362 280 270 258 265 271 267 311 333 312 308 310 302 308 321 323 104 313 309 315 315 322 138 129 161 194 251 256 259 266 267 268 300 300 296 290 290 289 291 290 289
343 321 372 395 389 389 388 420 352 344 329 343 370 349 419 288 269 270 260 265 270 300 305 300 302 298 313 309 314 265 308 307 307 315 317 315 309 311 182 243 131 132 133 133 288 280 282 277 280 281 287 284 285 288
322 302 376 380 368 391 400 394 387 357 362 344 368 352 373 313 291 253 267 259 264 279 289 293 298 299 299 301 309 111 132 141 304 303 305 277 310 300 301 186 283 278 204 262 279 283 281 220 278 279 279 278 277 280
323 327 360 350 385 399 399 388 353 386 359 347 360 362 350 309 298 281 257 269 264 267 272 279 279 290 293 293 298 298 208 104 104 159 278 287 294 293 282 272 270 271 272 272 272 271 270 270 270 272 279 284 287 275
326 313 361 367 369 371 376 371 354 340 346 350 352 339 350 313 305 288 277 246 248 269 263 265 270 270 270 276 277 294 287 291 290 144 280 288 286 274 125 235 133 260 260 261 142 271 223 269 269 268 272 274 268 352
320 315 325 365 343 339 348 347 330 355 355 369 353 336 348 337 307 298 283 284 277 267 259 240 238 258 220 253 249 253 257 260 258 127 262 268 263 202 159 269 269 265 136 153 135 267 276 279 194 247 286 322 336 347
312 321 311 315 362 340 331 328 336 335 344 354 352 340 340 348 330 311 301 285 282 280 278 174 271 267 257 257 258 264 263 268 113 189 270 180 267 273 276 280 276 216 279 284 275 277 295 308 319 336 257 312 252 283
309 318 313 307 321 365 372 363 363 352 369 370 354 339 336 345 346 338 312 303 294 286 284 280 283 284 285 223 284 232 285 287 287 264 295 300 113 310 314 319 322 324 356 366 372 366 356 367 345 318 214 167 170 310
309 312 320 317 305 303 317 323 333 337 342 342 344 357 354 375 374 370 356 349 329 322 309 308 310 312 320 321 386 358 362 358 348 351 351 355 351 361 365 364 367 342 164 351 358 337 315 309 304 303 305 305 303 292
300 304 308 317 319 316 311 313 313 315 320 323 329 330 335 344 348 354 359 367 368 359 359 357 343 324 314 312 316 312 307 302 294 288 286 287 283 152 311 321 319 322 311 304 297 289 286 278 274 276 281 285 281 276
300 293 301 308 315 319 326 328 325 326 313 308 318 322 326 320 271 313 312 310 307 302 300 296 293 289 283 282 274 274 276 272 270 282 276 275 274 276 272 267 261 272 274 275 276 280 281 280 276 274 268 271 272 272
294 300 307 305 309 318 323 321 319 313 307 303 301 301 299 298 293 291 287 283 282 279 277 280 283 289 284 283 283 283 279 275 276 271 272 271 271 271 272 262 261 259 258 259 261 262 264 268 268 269 270 272 274 277
285 304 296 293 290 289 289 294 292 293 292 290 286 280 277 282 285 287 285 283 279 276 272 271 272 268 267 266 261 264 266 266 264 263 265 267 268 269 268 266 263 261 260 260 267 272 273 273 274 275 278 279 285 288
281 293 298 294 287 282 279 277 275 275 279 290 292 284 281 276 270 270 266 262 260 259 258 257 257 255 251 249 252 254 254 253 250 251 252 252 257 258 259 261 261 260 262 263 264 262 263 264 266 267 271 272 273 274
322 277 278 275 273 277 278 284 290 285 276 269 267 266 267 258 259 252 248 248 246 244 242 240 250 249 247 242 239 243 253 252 251 252 253 251 249 250 250 250 253 252 252 253 262 259 262 266 271 273 271 271 272 273
272 270 278 296 302 298 281 268 259 268 266 254 255 252 254 250 249 244 241 249 253 247 238 235 243 244 241 239 237 234 231 233 240 245 249 253 254 257 261 262 265 265 269 270 276 277 278 284 287 288 289 290 291 292
295 297 276 270 265 258 234 236 252 246 252 254 250 251 246 245 245 244 239 237 234 236 236 230 229 246 248 248 250 250 247 242 245 256 258 264 265 269 272 276 277 285 292 296 295 296 304 311 314 315 317 314 310 308
264 261 251 248 244 240 252 247 239 242 234 238 242 238 246 245 240 236 241 238 250 238 233 246 243 244 247 249 253 258 253 251 253 262 261 270 275 280 290 339 378 381 383 385 384 423 422 420 415 377 367 358 355 352
229 225 247 244 248 251 249 244 252 244 247 252 249 247 251 243 246 245 251 248 236 247 249 249 248 248 248 251 251 257 246 262 261 269 277 292 384 376 359 350 347 348 440 440 437 441 435 421 415 413 422 422 440 429
246 252 248 252 251 249 241 241 245 247 243 249 250 250 246 245 245 244 242 245 244 243 240 246 240 241 247 248 253 250 262 265 276 295 386 365 354 348 364 456 452 444 430 419 412 408 408 490 480 469 455 443 433 422
254 258 249 240 242 245 248 249 249 249 248 247 241 243 243 241 240 240 237 241 241 242 237 239 247 250 250 254 249 264 272 288 330 363 355 339 355 462 454 442 430 417 403 396 394 467 460 449 438 428 418 409 402 394
235 231 233 237 232 230 239 242 241 240 239 238 240 241 239 240 236 242 243 239 243 239 242 248 243 250 259 251 269 274 301 373 357 348 342 437 474 455 439 425 409 393 385 385 384 383 391 392 392 387 381 375 370 365
232 235 240 235 232 231 232 233 237 239 239 240 235 239 238 238 242 243 237 247 249 242 246 252 253 254 254 266 296 331 385 353 346 349 492 481 462 442 426 413 397 384 376 375 368 367 364 362 361 354 351 351 349 347
231 232 233 234 240 238 235 233 234 238 235 237 241 241 238 235 245 245 250 241 246 252 251 260 264 255 271 325 340 358 357 340 349 476 477 465 447 432 415 403 393 380 374 366 368 358 361 356 351 352 351 349 347 346
253 252 248 239 235 232 232 235 241 239 236 245 247 245 244 246 249 246 246 252 249 259 265 268 264 287 331 339 343 369 335 355 456 447 443 426 408 423 413 401 392 380 375 364 363 355 352 358 356 353 349 349 349 349
252 253 251 249 250 255 252 252 243 247 248 246 248 248 249 248 246 254 247 259 264 264 273 290 300 329 337 343 375 332 362 398 438 417 392 369 360 354 351 368 392 385 375 371 356 355 356 347 343 342 346 349 349 348
247 251 254 253 253 255 250 247 246 246 255 249 254 249 251 254 253 259 264 270 270 277 297 299 331 335 346 376 329 369 361 440 414 386 372 359 354 355 357 358 354 356 380 363 358 349 340 336 335 335 336 345 350 351
254 251 250 252 248 245 248 251 252 253 254 255 251 255 256 259 262 262 274 279 285 294 298 333 334 349 371 330 359 364 440 411 388 374 364 368 446 439 419 402 377 369 356 354 348 343 344 345 345 345 345 348 351 357

GFSWCAN_2pvu_pres_075.txt.gz
Presure
318 300 296 294 292 294 293 296 299 302 303 299 295 293 288 287 282 291 313 330 353 335 368 379 378 375 374 371 364 188 371 366 356 342 280 282 294 252 264 255 259 248 242 245 235 230 225 238 234 199 242 139 230 221
298 288 285 284 282 282 281 282 282 286 287 285 285 284 279 280 283 287 291 312 333 346 357 363 367 368 384 353 355 343 192 210 115 340 284 265 292 276 121 253 253 249 254 253 244 244 237 242 245 240 226 245 243 243
290 284 279 277 276 274 274 273 275 278 280 283 284 281 276 269 266 267 281 288 329 352 336 351 349 361 366 359 349 340 339 238 326 317 308 269 276 293 301 247 257 250 246 242 250 239 227 232 239 238 240 239 240 241
284 276 274 274 267 265 269 267 266 269 274 279 281 282 277 267 264 269 276 284 309 351 335 335 349 357 346 340 326 330 328 317 311 314 321 281 259 282 294 299 265 259 252 248 247 250 253 252 245 245 253 249 187 257
276 273 260 263 295 327 324 324 326 329 335 284 276 276 277 260 257 261 271 278 293 360 341 336 336 336 335 175 322 316 310 215 304 310 313 313 270 260 282 289 292 274 264 260 259 258 255 261 260 259 266 268 265 269
264 265 304 319 338 352 355 356 356 358 375 356 353 282 262 272 263 265 267 274 276 380 314 325 323 329 320 321 312 307 301 298 298 303 308 309 284 269 263 257 269 273 275 274 277 278 282 284 283 276 277 275 274 272
298 319 335 342 367 397 383 394 385 349 340 357 350 361 394 260 262 258 257 265 273 333 338 348 328 313 308 306 91 299 249 296 296 297 296 293 303 333 305 267 264 249 255 262 264 202 265 258 262 256 258 261 264 265
338 321 347 386 382 402 395 385 389 379 342 340 338 347 375 343 266 260 255 263 272 277 322 316 302 304 307 298 220 299 260 255 305 322 316 320 216 128 275 326 276 261 260 253 131 256 260 259 257 255 259 266 271 297
324 321 370 365 386 394 386 394 387 393 333 325 325 350 366 358 278 262 255 260 266 272 319 316 310 302 305 303 306 309 315 298 124 307 301 262 317 320 310 306 301 201 293 155 239 204 265 266 260 256 287 291 284 281
332 356 349 355 378 367 367 362 371 359 335 335 328 354 338 367 302 270 250 255 270 268 275 297 302 298 296 297 298 291 183 225 299 304 301 135 305 307 301 299 299 297 296 295 297 296 291 293 289 288 147 282 284 283
320 349 335 337 340 347 348 348 351 357 351 339 342 336 334 342 309 280 263 260 264 271 263 263 281 278 285 282 289 292 292 295 295 293 112 295 167 273 288 291 290 284 235 154 280 281 131 133 280 204 283 189 275 231
321 362 333 323 338 321 327 330 330 334 332 331 332 324 331 334 311 296 277 263 251 255 266 263 264 264 266 265 268 267 268 273 271 270 277 200 266 280 167 264 128 131 282 281 279 183 143 277 215 275 275 273 234 269
316 315 368 346 329 337 326 336 343 336 333 322 324 331 326 337 313 304 292 269 260 249 248 251 253 252 252 259 254 248 250 248 250 262 271 267 271 247 275 260 278 276 274 276 276 263 265 264 266 266 265 260 261 154
305 306 323 335 374 351 367 366 337 335 335 327 320 147 335 329 322 302 297 293 271 265 261 255 254 258 259 260 261 259 261 265 264 265 272 173 134 287 303 316 367 373 371 374 373 233 359 362 367 373 374 368 357 337
321 304 307 307 317 331 338 345 350 335 326 327 332 341 334 333 344 336 310 306 299 288 281 274 270 270 272 279 290 332 382 356 340 327 313 306 306 305 305 313 236 254 321 332 339 336 332 338 334 324 318 314 311 308
308 325 316 311 311 313 321 324 327 334 334 334 341 350 370 394 368 351 358 350 326 318 316 317 332 375 366 341 317 301 291 284 283 283 280 280 276 277 281 282 276 278 280 282 282 288 295 295 291 292 292 291 291 288
304 310 330 322 321 317 311 316 316 320 321 328 330 339 348 349 368 368 371 340 339 335 324 295 288 284 284 283 279 274 272 270 270 277 265 266 261 259 260 263 270 272 274 274 277 275 275 275 276 275 274 273 274 276
303 311 320 325 324 328 319 305 298 296 299 303 301 298 294 291 288 286 280 274 271 269 267 266 260 263 268 271 271 268 262 267 261 261 267 269 265 269 267 268 270 271 271 270 270 270 269 271 273 276 277 278 278 275
310 315 315 306 297 300 298 294 285 277 277 279 283 284 283 281 280 279 279 277 274 270 268 262 258 254 259 259 261 261 256 256 258 259 260 259 260 260 260 261 260 258 257 259 259 260 260 262 261 264 266 267 267 265
292 294 296 294 277 272 278 282 284 281 276 272 268 265 264 265 262 257 255 254 253 247 248 254 253 252 253 247 249 249 251 249 247 246 247 247 244 250 247 251 257 257 264 267 269 269 269 271 272 270 270 266 263 265
279 269 269 275 290 276 272 268 252 254 255 265 264 246 252 257 256 256 245 245 246 248 248 246 245 243 243 243 243 240 237 251 251 249 245 250 245 255 264 270 275 276 276 281 286 290 288 288 289 290 291 294 294 295
276 282 287 276 270 263 256 259 263 256 248 256 256 246 249 245 245 238 240 244 241 234 242 236 235 236 248 243 245 251 256 255 253 256 254 266 270 270 273 294 303 308 344 342 347 391 390 391 386 381 372 368 365 360
291 267 254 256 256 246 248 258 255 254 239 237 245 240 238 238 246 239 236 238 252 246 240 230 240 249 248 251 250 256 253 258 259 263 266 272 280 298 312 377 368 363 359 355 352 351 353 353 352 350 350 353 352 397
240 246 239 247 234 239 232 229 235 241 242 242 250 240 238 249 244 241 247 254 239 234 247 248 248 248 248 252 252 257 257 260 266 267 275 331 359 371 359 356 346 345 443 437 456 455 449 436 424 416 413 410 404 398
238 236 244 251 245 242 251 245 249 246 245 246 247 247 241 243 245 245 244 246 246 244 246 249 248 245 247 256 257 250 266 265 273 299 343 372 362 350 350 456 480 467 456 447 435 422 411 406 402 404 480 470 461 451
238 251 244 250 240 243 248 248 246 246 241 239 238 242 243 246 248 242 237 243 241 245 247 245 246 254 254 251 260 269 266 314 343 343 380 355 350 378 494 482 464 449 436 422 408 396 391 388 391 431 429 423 418 411
236 234 240 244 242 240 242 243 244 242 239 234 237 239 241 242 241 233 244 247 246 239 241 250 251 250 258 269 271 292 330 342 349 375 342 368 435 482 476 462 448 430 421 405 394 384 377 377 372 372 369 369 365 363
231 234 235 233 234 230 235 233 237 237 238 239 236 240 241 247 246 247 244 247 243 241 249 250 253 254 270 286 307 334 345 360 364 330 376 428 444 419 393 375 382 422 413 398 387 381 369 369 368 359 360 358 353 351
234 234 239 237 237 241 238 235 234 233 237 243 234 242 247 240 248 247 247 243 244 246 250 259 263 279 296 302 337 347 368 355 325 376 406 444 420 392 375 366 361 356 354 394 392 379 374 365 362 360 352 351 352 354
234 240 236 246 248 237 238 235 235 243 252 243 249 247 250 250 249 246 245 246 252 260 264 275 288 296 298 325 348 372 347 334 373 367 439 408 390 378 367 364 361 360 361 359 353 376 376 370 364 355 352 349 344 338
252 251 249 247 246 247 255 246 250 252 250 246 248 252 250 250 244 247 255 259 264 271 287 284 299 305 299 346 368 350 323 370 354 436 408 388 374 366 379 386 436 420 405 384 368 361 358 371 352 349 347 343 341 341
245 246 247 247 250 254 255 253 249 245 254 246 254 249 249 250 254 249 263 270 277 287 282 308 312 295 310 367 359 321 368 356 434 409 389 369 380 395 397 460 454 442 423 410 396 387 374 363 355 354 355 356 355 354
251 252 253 255 257 251 246 245 252 253 256 251 250 253 259 255 257 261 279 275 295 282 282 312 305 305 364 364 325 363 359 351 411 392 371 386 405 401 384 444 440 433 428 418 407 397 392 383 379 377 375 372 371 371

GFSWCAN_2pvu_pres_081.txt.gz
Presure
286 284 288 283 300 339 317 303 294 293 290 299 319 309 316 328 332 331 327 332 333 341 340 345 376 366 348 310 306 304 257 303 303 305 323 341 368 415 387 368 278 285 254 266 271 245 235 228 221 222 224 218 217 225
285 282 288 294 317 360 320 298 291 285 286 287 291 298 304 314 311 311 310 319 322 316 318 326 370 358 357 367 353 349 344 334 339 348 357 348 358 377 347 332 329 319 289 254 261 262 239 239 243 227 219 218 213 214
277 285 285 304 321 402 323 297 288 279 278 278 283 285 283 284 289 292 295 288 286 283 303 317 342 372 340 348 345 331 328 325 324 341 343 363 350 343 328 320 308 311 283 254 274 245 256 248 237 232 235 219 221 143
277 280 291 309 355 352 315 299 288 278 271 270 274 275 276 280 279 281 280 285 282 273 283 307 325 338 354 366 364 346 324 338 358 361 347 344 330 332 322 335 322 298 294 277 246 255 243 247 248 243 243 248 233 221
274 278 300 317 372 327 313 301 292 280 267 265 265 269 274 271 274 271 276 280 266 263 267 301 313 359 344 359 374 359 351 293 334 355 337 321 318 312 304 299 324 303 292 279 270 277 243 240 240 242 250 250 257 257
284 300 309 364 338 319 309 302 294 283 270 251 253 255 258 269 276 270 267 277 267 269 275 287 320 340 343 352 370 369 348 324 338 340 327 328 315 307 301 300 327 329 282 264 277 292 264 239 243 244 251 245 244 245
296 304 321 338 317 308 301 291 289 266 259 259 259 259 260 261 265 273 272 283 257 266 270 290 322 334 350 350 360 327 338 329 347 325 315 322 104 310 308 304 308 314 310 266 266 289 281 264 249 242 244 245 250 250
299 319 330 312 282 291 319 336 357 355 350 349 346 341 334 304 264 263 274 271 254 253 264 286 342 350 372 362 351 337 325 328 316 300 302 299 300 298 297 298 303 306 299 264 260 257 168 282 262 256 252 245 249 249
314 323 291 292 330 366 377 393 404 382 368 365 349 322 339 334 312 261 268 278 254 252 267 296 339 333 325 328 329 304 299 296 289 144 282 284 284 282 282 283 287 295 296 290 261 264 251 261 281 282 269 261 251 245
319 283 308 331 350 394 370 389 389 380 386 369 390 387 333 330 326 304 262 283 253 257 266 318 331 333 321 309 299 89 277 216 281 292 284 294 277 277 280 283 285 300 292 294 293 270 264 253 253 262 277 282 281 275
285 317 347 332 352 390 381 372 365 362 369 356 341 331 332 337 344 318 265 279 247 255 268 327 320 311 320 295 282 282 283 100 104 251 278 284 288 284 281 283 238 130 182 304 306 301 249 280 269 263 256 250 260 270
316 343 339 340 339 352 364 353 340 328 322 324 323 323 325 335 354 333 259 245 249 251 266 329 317 312 299 288 287 284 293 286 265 292 169 278 284 292 296 292 303 301 299 299 301 302 203 308 311 311 314 300 245 295
321 331 327 326 328 321 319 315 321 312 315 315 314 315 331 349 361 327 301 250 249 251 258 318 301 289 277 277 286 285 279 273 253 283 287 280 276 283 285 159 141 291 277 146 158 274 144 243 291 306 305 302 300 302
349 334 316 323 327 315 310 308 308 309 308 309 330 335 347 354 351 310 275 254 246 261 255 261 268 295 281 274 271 270 272 270 270 266 268 269 272 269 202 118 279 280 280 120 277 276 278 283 294 293 305 302 295 320
345 329 318 317 326 322 311 306 310 318 327 318 317 320 330 339 316 307 284 264 252 257 264 260 258 258 253 252 251 252 257 259 259 265 266 265 270 276 291 338 323 314 310 308 309 309 309 310 310 310 310 315 317 257
329 342 341 321 320 315 318 318 321 321 241 310 312 314 325 329 307 294 280 268 252 249 257 254 244 239 242 250 258 258 261 265 271 282 310 307 298 289 284 280 280 279 278 277 277 278 279 279 279 278 281 283 285 289
327 373 351 329 330 320 322 316 315 316 309 306 305 313 317 318 300 291 281 274 264 248 240 236 254 254 256 261 264 328 318 301 288 278 278 273 272 270 265 259 264 264 264 263 264 265 265 265 265 265 260 265 268 268
316 325 328 330 321 314 318 323 330 339 325 320 313 314 314 317 296 293 288 283 276 268 255 258 260 263 294 295 281 277 271 269 253 262 258 256 255 253 252 252 254 255 255 253 252 257 261 262 263 265 265 266 267 266
317 320 326 322 323 323 327 326 331 341 353 378 357 330 324 324 322 303 299 297 285 273 278 303 295 280 269 261 254 244 246 251 250 253 251 248 248 248 248 249 252 252 253 259 260 260 259 261 262 263 265 266 269 275
324 319 320 321 330 327 312 311 312 312 316 322 319 319 357 361 363 318 300 289 279 272 263 255 252 245 244 250 238 239 241 244 246 248 248 250 250 252 251 250 251 251 252 252 255 252 266 276 274 275 292 299 300 304
297 288 285 286 285 285 284 283 282 280 282 281 281 277 273 269 265 258 250 248 245 243 244 248 236 240 246 244 239 243 243 243 237 237 242 245 248 249 249 250 286 294 303 305 312 316 369 374 379 385 389 388 387 381
281 281 278 277 272 270 269 268 257 256 255 251 253 247 245 248 248 246 244 242 245 245 241 236 244 248 238 236 236 237 237 243 255 254 255 269 271 282 298 309 302 307 334 389 383 372 369 361 355 350 374 380 477 472
266 259 259 258 257 254 244 252 250 249 249 247 251 249 251 249 244 243 239 239 243 239 234 235 235 236 243 251 249 248 249 256 261 264 271 297 327 308 303 314 386 370 352 342 363 382 380 489 489 477 467 458 453 445
260 252 254 255 259 260 258 246 244 241 247 245 243 241 239 238 235 240 248 252 235 243 249 248 249 246 245 243 245 249 254 261 264 299 313 329 311 306 385 363 343 370 376 372 457 440 433 421 409 448 438 429 418 410
250 256 245 243 246 247 250 243 241 243 244 244 240 234 243 245 243 246 229 243 236 245 246 246 244 244 245 249 249 252 265 282 305 328 322 309 320 378 347 339 376 374 452 428 413 403 388 376 371 365 417 406 396 390
251 243 244 247 250 244 242 245 246 242 236 235 237 234 238 239 246 245 243 246 249 247 243 246 244 242 246 245 250 281 284 312 331 318 310 368 372 338 377 370 439 421 408 396 387 382 375 369 366 364 360 386 386 383
248 248 246 245 244 245 244 242 242 240 239 235 237 245 233 247 246 241 244 246 242 239 239 238 239 243 240 237 270 281 303 319 334 310 380 370 337 380 369 432 413 394 383 390 394 393 387 387 380 375 370 365 366 379
242 241 230 245 240 232 232 237 236 234 236 239 246 242 249 242 245 243 246 243 236 230 237 246 241 258 272 263 286 291 299 343 315 328 379 338 378 368 426 412 389 393 414 414 414 400 400 398 422 404 392 379 371 369
232 234 233 233 234 240 243 235 237 239 248 243 245 250 242 244 248 247 245 243 236 237 254 251 242 261 275 287 286 292 334 326 309 382 348 357 371 360 416 394 397 401 392 424 443 457 457 447 436 422 407 398 384 370
242 242 235 231 237 248 243 247 247 244 244 246 245 244 244 244 238 250 255 245 245 250 251 262 262 282 276 285 282 307 335 316 366 370 334 376 362 425 400 398 385 376 432 411 400 418 428 430 428 426 418 409 403 397
232 232 246 252 248 246 247 240 243 249 249 248 242 242 243 238 234 241 250 252 255 259 242 263 263 275 284 292 294 328 328 319 377 343 360 368 359 408 398 387 376 422 391 387 392 392 399 411 411 407 402 384 373 363
242 243 252 250 243 246 245 243 241 240 242 243 246 243 248 247 244 246 246 251 259 258 265 268 273 278 288 300 317 333 322 358 361 335 373 359 414 404 389 382 388 397 393 406 408 397 385 370 357 349 345 342 338 336
255 250 243 245 245 242 234 240 245 243 243 247 245 246 248 257 251 246 253 263 256 262 268 272 267 287 286 295 333 329 330 370 335 369 365 355 415 394 386 384 403 398 394 391 393 375 359 350 347 344 340 336 335 338

GFSWCAN_2pvu_pres_084.txt.gz
Presure
283 283 282 280 280 284 289 287 302 331 305 291 296 315 309 335 344 344 348 348 353 365 328 308 295 295 294 284 273 260 220 257 262 262 268 278 277 280 277 276 280 272 246 263 267 278 254 235 229 241 237 229 219 225
286 282 281 277 284 292 292 285 310 342 301 291 291 296 312 324 331 338 342 341 324 321 330 320 316 314 305 301 301 289 283 272 267 263 268 268 266 264 264 262 263 272 277 277 261 274 276 252 233 231 232 228 241 225
284 279 281 276 280 291 277 290 330 337 290 291 281 291 296 301 311 308 316 304 302 302 303 305 313 360 371 364 390 325 321 307 302 302 307 305 301 380 345 358 353 326 310 283 289 247 230 275 247 232 229 228 223 227
282 279 279 274 284 288 274 302 385 329 294 287 280 282 285 288 285 283 287 287 284 282 279 306 305 330 341 351 342 367 351 350 338 346 341 343 339 380 339 322 327 315 307 328 328 282 250 240 264 248 231 156 223 222
281 278 279 277 286 278 284 311 363 325 298 286 279 275 278 280 285 285 277 272 270 270 278 274 297 322 344 354 353 342 338 340 338 336 332 339 356 338 312 315 316 309 296 306 317 307 278 250 255 257 246 238 228 227
281 277 281 277 283 279 297 373 343 320 298 286 276 268 272 274 274 279 281 284 270 267 267 267 300 310 341 331 365 357 339 340 337 354 345 351 332 317 309 311 301 295 292 290 312 304 276 279 257 266 262 243 247 247
280 278 281 277 283 290 309 354 327 314 303 291 278 268 264 254 260 272 282 280 261 261 264 271 291 303 334 337 352 367 349 339 348 329 344 326 315 315 306 307 295 290 291 289 290 305 317 277 285 263 278 271 264 254
280 278 283 288 285 306 346 337 317 308 303 299 281 256 252 253 258 260 269 273 262 253 267 267 297 295 342 349 361 362 357 337 324 328 319 313 305 129 304 302 314 312 303 296 296 297 281 301 301 282 258 269 273 265
278 279 288 295 303 338 304 286 288 280 272 277 275 270 267 265 259 264 257 267 278 253 263 270 299 339 360 378 346 356 340 326 326 304 307 310 311 309 298 303 306 300 294 304 313 312 290 298 277 276 274 266 284 279
283 290 292 308 317 303 345 364 385 372 370 375 337 294 284 279 279 276 270 265 268 254 257 279 297 332 369 364 325 315 311 299 296 290 288 288 281 278 281 282 283 284 288 292 292 297 301 287 277 270 259 272 279 283
289 293 316 294 328 350 399 399 374 367 372 381 367 377 361 330 339 332 326 291 273 256 259 283 320 329 325 318 190 302 293 290 290 286 278 276 272 277 278 281 283 285 286 294 292 243 295 294 293 258 269 268 260 262
300 301 303 349 356 370 367 381 386 373 368 355 352 351 347 312 329 341 321 255 250 252 264 300 340 323 312 295 289 283 222 102 173 281 281 245 284 274 276 276 279 285 294 293 296 298 295 307 304 290 290 289 281 275
292 310 342 343 336 338 338 338 336 337 339 343 348 344 334 322 336 343 311 250 249 253 273 332 334 301 279 283 295 294 283 290 98 275 263 278 294 278 276 281 282 285 285 287 291 289 292 281 127 127 306 307 309 308
316 341 334 314 315 324 322 322 322 320 321 321 324 322 329 343 354 317 249 258 253 254 304 318 299 298 287 286 288 280 279 280 269 277 282 265 268 123 185 246 112 118 212 121 279 261 281 286 287 287 289 294 296 298
340 325 328 309 314 310 319 319 313 309 309 316 322 335 342 363 333 265 243 262 248 256 295 309 296 289 269 264 266 263 266 267 274 267 271 270 271 271 290 319 177 127 279 142 305 301 295 293 296 297 298 301 304 307
321 327 331 310 297 303 315 314 316 315 318 324 328 336 348 358 326 313 250 255 254 255 253 261 254 253 256 255 255 251 257 264 274 287 306 321 318 295 284 282 279 277 277 277 278 279 279 280 279 278 280 280 280 283
312 317 322 319 319 317 321 313 309 308 317 319 327 337 349 327 312 262 257 249 253 259 258 255 250 247 240 245 284 295 325 321 282 273 269 261 259 260 260 261 261 262 262 262 264 265 267 268 271 272 273 272 272 271
348 325 322 317 316 311 315 306 309 310 311 317 319 334 320 309 289 261 258 251 253 250 246 242 234 282 294 296 269 262 256 256 257 255 252 255 255 255 254 253 254 254 258 259 261 261 262 263 263 263 266 266 267 266
331 331 324 320 314 323 315 318 309 311 314 313 318 328 311 295 286 273 257 245 245 237 234 284 295 267 260 256 253 248 252 250 245 245 245 248 250 249 250 250 251 252 256 260 261 262 262 263 264 265 265 266 272 273
328 321 323 324 321 324 336 341 346 322 306 314 316 327 312 300 297 289 271 255 277 298 268 259 255 250 250 245 241 245 244 242 240 242 244 245 247 252 256 255 263 256 277 283 296 302 331 336 353 318 318 321 371 379
323 324 324 332 336 333 337 341 362 417 329 326 328 331 324 284 311 295 286 267 258 254 248 246 244 244 243 238 238 237 236 237 245 251 255 257 267 272 282 289 291 311 336 342 327 318 319 385 377 370 362 356 350 347
293 294 291 291 289 289 288 288 289 289 288 283 280 278 273 267 263 257 253 251 245 242 242 241 235 233 233 236 242 247 248 242 242 250 262 271 274 283 318 347 331 320 316 329 372 358 349 352 379 379 395 454 473 484
284 277 274 270 269 268 261 262 261 261 261 259 259 255 251 247 245 245 242 241 235 233 235 240 245 248 246 244 246 250 252 251 250 265 268 288 290 345 335 319 318 370 355 347 385 379 400 448 436 428 420 408 395 384
263 259 259 256 256 253 257 250 249 251 250 249 244 244 247 245 246 239 232 247 242 247 245 245 245 246 245 245 248 236 241 251 266 276 282 288 335 323 315 383 350 363 381 372 426 427 413 403 396 393 388 382 377 374
258 256 251 245 249 249 247 248 242 243 241 243 246 247 247 235 245 242 241 248 246 245 244 239 239 243 237 244 245 250 264 265 271 288 290 336 319 382 373 343 385 377 368 426 410 397 390 398 397 393 386 378 372 370
250 248 247 248 251 250 247 242 236 234 233 233 237 233 250 249 241 240 244 246 245 240 236 242 240 243 246 253 257 257 269 275 284 297 343 323 373 376 337 377 374 387 419 399 402 410 407 406 416 408 405 396 406 390
252 250 248 248 245 244 242 239 237 236 239 250 245 250 246 244 247 244 246 242 239 242 241 232 244 255 237 251 269 268 270 282 301 344 332 347 386 340 369 374 364 414 404 402 383 392 433 438 467 459 449 437 422 407
244 243 245 239 241 234 232 235 234 243 243 246 249 241 245 242 242 240 241 249 243 244 244 251 256 252 250 259 269 264 278 280 307 335 337 382 348 355 375 363 420 405 394 381 390 404 389 388 421 438 443 438 428 417
236 233 238 240 242 240 234 247 244 246 247 246 244 242 241 241 239 235 236 237 240 241 237 256 254 252 253 270 273 279 284 290 322 338 361 371 344 379 366 362 415 398 384 392 400 393 399 401 396 416 415 414 416 416
234 235 234 243 250 247 249 248 248 248 249 247 242 244 245 244 247 249 246 252 238 245 256 258 253 252 271 267 274 278 280 305 332 340 373 341 367 369 355 423 404 388 384 399 398 401 418 404 394 383 369 361 353 349
235 236 251 253 249 252 246 246 244 242 242 245 247 247 246 244 248 253 251 240 248 255 252 259 259 269 267 278 282 283 284 319 337 375 357 347 374 359 393 415 397 385 382 394 396 385 389 397 384 364 356 346 344 344
235 236 252 254 249 248 247 242 238 244 241 240 240 239 250 248 246 251 249 250 251 257 251 264 269 257 269 279 269 285 300 331 343 369 343 371 364 356 428 407 391 377 380 383 389 383 402 391 376 363 354 351 347 345
249 257 256 245 248 242 242 240 240 237 235 245 244 247 247 239 250 252 249 251 254 250 265 269 256 276 275 274 291 290 300 334 375 345 361 370 356 394 422 401 385 372 370 382 387 387 390 388 383 373 365 358 354 351

GFSWCAN_2pvu_pres_087.txt.gz
Presure
287 288 293 294 292 290 288 287 287 281 290 279 340 304 299 311 317 336 340 343 361 370 336 310 294 290 295 284 177 263 260 263 270 272 273 267 260 265 250 270 154 263 252 259 261 274 260 257 270 249 261 246 233 234
310 307 305 304 299 296 293 288 282 279 291 284 336 301 292 306 313 331 338 351 358 367 341 320 302 292 291 290 280 273 265 263 263 263 263 279 278 266 262 259 254 254 255 263 255 259 261 261 280 246 243 250 249 243
320 317 312 303 297 294 291 285 281 283 272 293 326 295 289 301 336 341 348 348 339 343 330 331 325 302 295 294 296 284 272 268 261 263 265 268 270 274 273 271 269 268 273 278 258 259 259 267 274 260 245 245 253 241
326 323 322 311 302 292 286 280 279 289 272 308 320 291 279 294 296 310 313 310 307 301 305 304 302 324 344 347 336 307 302 296 288 281 206 262 260 257 257 263 257 258 262 266 277 280 238 254 261 267 259 240 244 239
347 343 315 313 296 288 282 281 277 285 276 336 320 288 281 285 281 280 288 294 287 285 282 281 304 301 305 354 366 364 365 356 314 306 306 301 297 295 299 298 290 319 318 324 314 319 315 322 252 266 271 250 241 244
336 351 334 310 293 286 280 282 278 270 285 379 322 287 281 277 278 278 282 273 269 272 269 275 278 304 316 331 350 350 345 359 357 352 351 341 328 344 345 343 311 303 315 303 323 310 318 302 282 246 272 278 256 247
329 338 321 300 291 283 279 283 270 279 294 352 323 288 273 274 278 283 278 269 265 267 268 266 266 274 305 322 338 340 363 341 332 332 334 346 338 340 321 323 313 302 309 301 299 302 298 304 301 304 265 271 280 270
311 326 307 296 285 282 282 280 280 281 321 340 318 294 278 273 269 276 283 272 264 262 269 265 268 267 297 332 336 339 356 357 334 323 327 347 330 354 317 316 313 304 295 304 309 294 300 298 310 313 288 272 257 268
324 312 299 290 284 281 283 287 281 295 338 326 315 305 283 267 266 251 267 281 268 259 255 262 264 288 308 347 343 342 363 348 340 334 331 334 345 325 311 304 303 306 296 305 294 301 297 302 308 310 310 316 270 276
316 303 292 286 282 282 286 284 301 333 323 314 311 308 292 280 258 255 266 260 277 261 255 256 258 288 318 373 374 381 353 354 322 325 332 336 312 321 312 314 304 304 298 297 288 288 291 299 288 278 283 282 319 321
303 293 288 282 286 284 298 314 318 289 279 286 303 305 292 297 287 272 261 246 273 260 256 254 272 308 360 345 341 352 333 334 332 318 308 307 293 317 295 293 282 314 299 287 283 283 279 285 297 307 305 292 291 290
294 286 284 284 299 308 311 330 349 374 391 393 370 294 284 279 288 291 272 265 263 258 256 256 292 346 328 322 320 316 312 308 295 300 291 295 287 298 290 294 299 292 286 287 289 287 285 285 288 290 296 301 301 300
284 282 293 303 312 370 368 370 378 360 355 361 351 348 361 285 298 292 281 278 269 255 260 274 335 323 305 319 315 136 236 105 260 284 139 285 261 285 268 285 272 279 284 290 290 288 254 277 278 300 288 287 289 290
291 296 304 351 378 379 370 365 370 364 355 359 355 350 356 381 290 337 343 318 320 258 259 316 325 312 297 286 283 295 297 295 265 109 173 269 273 273 273 269 273 275 274 278 283 282 284 120 289 291 293 296 298 300
306 315 333 319 332 342 346 353 353 338 334 338 345 349 361 335 324 236 329 284 255 255 310 316 298 292 290 295 286 274 278 272 268 268 264 260 267 262 155 269 205 238 199 112 265 145 273 275 274 278 282 283 285 286
330 326 319 306 318 313 318 318 314 316 322 326 328 326 328 317 328 292 260 256 252 308 289 298 295 283 269 267 262 261 261 261 258 255 298 321 273 273 251 172 283 261 222 215 271 276 277 279 284 286 287 288 289 290
326 312 310 302 302 307 314 319 319 323 318 323 326 328 342 342 272 264 265 254 279 290 283 263 257 250 251 250 246 239 234 239 276 278 274 270 270 271 272 269 264 264 265 265 265 264 267 267 269 272 272 273 274 275
319 309 296 295 314 311 309 316 314 321 327 335 344 358 335 298 266 248 253 249 258 258 254 251 249 244 238 239 266 274 267 267 264 259 257 256 253 249 251 250 250 250 253 255 257 260 261 262 264 266 266 269 272 272
323 317 313 319 313 309 310 313 318 328 330 341 353 337 288 261 247 249 256 250 256 258 255 248 231 252 273 269 260 253 248 246 246 247 247 243 239 246 249 251 256 266 277 281 282 286 293 300 308 312 318 328 337 347
314 316 316 318 310 314 309 315 318 324 332 345 324 294 263 260 250 250 246 254 253 237 240 274 267 259 250 245 247 244 238 236 240 245 249 251 251 252 263 270 277 285 288 294 326 345 357 351 340 333 327 326 369 368
318 318 319 319 329 314 318 313 321 326 332 312 296 271 258 255 256 252 246 244 279 271 261 252 245 248 237 237 238 243 243 242 246 251 256 254 266 273 277 284 294 302 343 345 331 325 321 379 370 360 351 349 392 389
320 323 330 331 346 356 318 318 325 327 314 298 280 266 260 253 252 257 279 265 255 245 246 238 236 238 247 243 242 245 249 249 237 253 259 267 271 278 292 333 338 332 331 383 373 354 358 390 384 379 393 433 425 418
326 330 331 337 340 348 326 318 322 332 307 300 297 287 293 281 269 259 252 251 244 237 238 242 244 240 245 248 243 244 239 253 266 259 260 267 278 286 336 338 362 392 364 349 373 384 373 404 424 414 408 400 395 391
293 289 289 289 291 290 291 287 284 281 277 271 267 258 252 249 248 244 237 234 249 246 246 244 241 237 247 249 237 236 243 254 258 260 267 276 288 339 348 381 376 345 369 382 374 365 420 412 412 409 400 406 403 423
268 266 267 263 261 261 255 255 254 253 250 250 250 244 236 234 234 240 249 249 243 242 233 243 246 248 254 252 241 241 250 255 268 265 278 286 339 346 378 369 347 374 372 366 377 421 408 392 386 414 433 455 471 462
254 252 251 250 243 251 250 250 247 246 247 250 249 245 242 242 248 248 243 244 246 241 243 236 237 236 252 245 246 248 260 267 276 281 283 306 345 369 372 348 373 373 361 391 421 404 392 391 407 400 398 398 420 452
258 249 245 248 246 245 246 245 247 242 247 253 252 251 249 248 240 242 245 235 237 236 240 230 242 250 252 250 252 260 271 275 287 283 286 323 357 378 346 365 373 364 392 423 402 395 392 408 403 409 411 407 420 426
245 244 241 240 242 236 240 251 249 252 251 244 248 244 242 241 236 235 225 238 242 247 238 248 251 252 253 260 255 270 272 273 289 291 297 324 371 349 360 373 363 364 431 411 397 388 384 406 399 397 412 398 407 406
246 243 242 237 233 242 250 250 251 253 246 245 243 244 244 243 239 246 249 251 248 244 246 249 255 242 261 258 261 273 266 285 288 287 310 359 362 351 371 366 362 440 425 403 389 381 384 392 391 388 400 390 369 360
239 245 247 246 248 249 253 252 249 246 243 244 246 245 243 248 245 248 246 249 248 248 249 249 251 255 260 258 272 265 276 278 283 285 295 373 349 366 368 359 383 434 419 398 385 372 384 386 385 397 395 383 372 356
234 244 252 247 255 254 249 246 243 246 241 238 242 237 242 248 240 239 248 249 249 247 248 249 257 260 257 266 274 273 273 283 294 299 315 350 361 367 361 363 443 431 411 393 379 366 372 381 380 386 390 390 382 372
250 246 249 253 245 252 245 239 241 240 237 242 244 240 245 240 242 246 252 249 248 247 251 254 260 250 264 272 268 266 276 284 298 298 364 353 368 363 356 448 438 422 404 388 375 361 361 368 375 372 373 381 379 377
249 255 255 243 251 244 244 241 239 233 239 240 236 240 242 243 244 251 252 249 246 250 256 256 255 264 269 269 279 275 285 277 297 296 351 368 367 356 454 442 429 415 399 387 367 365 364 373 371 373 374 366 370 380

GFSWCAN_2pvu_pres_093.txt.gz
Presure
252 249 243 249 252 252 252 254 261 271 271 278 269 285 281 299 308 294 293 322 307 321 341 353 368 380 352 305 297 288 293 287 284 272 261 252 279 280 277 273 266 263 245 263 262 256 256 257 256 257 256 258 256 271
254 251 248 246 250 255 262 270 270 281 279 267 284 285 298 305 301 285 284 313 308 335 347 358 370 367 339 298 293 280 283 282 279 271 257 258 294 279 271 269 266 264 174 125 257 256 256 268 266 268 272 268 279 282
270 268 269 273 277 277 279 284 276 270 270 300 289 301 299 305 293 285 290 303 315 337 356 368 363 344 316 303 289 289 281 284 277 268 257 251 252 294 283 278 266 253 255 255 256 254 262 265 272 277 277 278 268 281
298 296 302 299 298 295 293 290 280 286 300 293 304 306 305 297 283 279 309 300 353 347 361 362 352 333 313 297 292 287 290 288 284 271 262 260 253 261 273 276 271 269 263 243 250 263 255 248 263 271 271 270 264 275
328 322 319 329 317 309 315 305 302 306 303 304 308 302 308 290 281 270 294 318 350 351 349 351 335 324 312 297 288 285 288 290 285 277 270 263 257 255 259 270 274 271 265 260 261 271 273 285 246 256 281 276 270 263
347 342 343 339 329 323 318 315 311 312 315 317 307 315 296 280 277 305 283 300 312 305 306 302 305 302 305 311 311 320 286 286 296 295 282 265 260 258 255 256 263 270 273 270 267 265 276 262 251 259 260 255 281 262
345 341 341 336 329 326 326 327 327 333 326 313 318 308 288 277 269 308 282 283 289 294 291 293 292 289 285 287 291 296 313 339 366 318 298 295 282 269 259 256 257 260 261 260 264 273 274 274 275 276 280 279 277 265
359 349 347 344 341 338 338 344 344 339 333 324 312 294 280 274 273 303 277 277 281 279 273 273 270 265 273 268 269 274 287 340 354 352 367 354 297 294 290 275 266 264 263 261 259 262 264 265 266 268 267 274 276 274
378 370 369 359 346 339 336 336 339 335 313 311 296 287 277 267 282 304 278 269 275 271 265 266 264 268 270 271 271 269 318 351 353 357 352 345 349 347 329 301 293 290 289 289 287 292 295 297 312 310 312 312 317 314
367 366 361 348 342 347 332 327 333 312 310 301 290 279 269 269 286 322 274 266 269 270 268 270 267 264 261 265 266 303 360 350 349 141 351 333 334 339 343 346 352 342 340 327 322 335 342 316 314 309 305 311 309 315
352 342 342 335 325 319 320 329 317 308 302 291 283 275 273 274 296 329 272 266 267 268 265 264 259 264 257 258 327 360 364 349 353 349 334 331 326 325 325 332 334 328 318 318 325 311 316 313 304 306 300 298 297 304
335 330 317 308 316 332 329 317 308 301 291 285 277 275 278 287 325 334 273 262 267 266 265 265 259 255 253 340 366 392 372 366 351 336 332 334 341 339 347 361 334 325 318 316 323 318 310 314 318 316 307 292 293 293
307 298 295 305 327 319 312 303 298 292 287 284 272 280 288 302 349 330 270 262 270 269 266 257 254 249 300 340 350 341 339 337 331 329 323 319 315 319 317 315 301 303 318 319 299 309 335 300 311 329 331 330 304 330
293 297 294 320 318 308 299 296 293 289 285 247 161 184 277 295 333 239 269 264 270 234 263 258 256 265 328 321 314 298 293 289 283 291 291 284 279 282 287 285 284 283 283 280 279 279 281 282 281 281 285 284 286 292
291 292 306 311 306 300 297 294 290 285 284 252 291 212 292 296 238 276 305 254 257 247 255 257 261 288 294 293 297 291 287 242 276 266 224 267 262 267 273 276 269 268 282 274 281 259 281 265 280 146 272 277 282 226
293 301 308 306 300 292 284 283 285 288 293 293 298 294 177 195 247 239 316 269 240 248 252 260 275 305 303 289 278 267 255 275 238 292 284 270 261 258 258 258 254 252 251 250 245 256 258 261 261 263 142 217 270 274
307 304 291 285 291 292 295 297 300 306 308 331 333 355 371 330 287 324 309 307 250 247 263 265 320 281 271 249 257 289 287 270 258 251 253 252 251 251 254 253 256 255 256 252 254 252 253 253 255 134 261 263 264 265
291 300 387 377 377 362 358 378 377 361 352 346 339 334 345 358 323 305 323 257 267 277 281 296 281 255 262 283 271 257 246 259 250 238 251 252 251 235 240 249 252 257 260 263 274 264 280 285 286 293 312 333 339 346
323 319 341 359 338 333 338 332 332 335 338 332 333 342 351 359 287 284 299 278 266 276 289 260 265 285 264 253 250 252 245 248 244 230 240 249 256 248 247 249 267 272 284 274 279 294 312 346 348 349 355 367 377 383
310 307 318 318 318 337 333 326 333 333 337 344 347 351 362 368 286 297 299 258 281 270 266 293 253 255 250 249 247 248 236 245 234 231 243 248 250 256 259 265 273 288 278 275 314 338 358 369 374 367 361 355 357 371
313 318 317 319 320 321 325 327 335 340 337 338 339 336 346 299 281 266 290 276 264 298 257 252 250 246 255 234 244 224 235 249 249 250 243 248 250 253 260 259 265 279 286 314 347 370 362 352 357 364 377 376 374 372
308 315 319 324 327 332 338 335 336 302 288 282 290 275 291 278 265 268 275 282 261 257 253 249 247 236 244 234 248 252 247 248 249 254 251 250 253 257 258 265 279 291 287 330 373 356 359 370 371 369 363 365 398 439
308 314 316 323 325 336 352 287 287 278 292 279 274 261 253 261 299 265 256 263 254 246 242 239 237 241 243 251 250 250 248 250 251 250 253 256 266 272 270 283 286 295 315 345 365 369 368 362 355 362 421 441 429 412
311 315 320 327 329 285 281 279 270 272 258 252 248 255 271 267 252 264 250 252 242 244 236 244 241 242 239 244 247 247 242 249 242 241 250 254 259 276 271 290 286 302 328 374 373 367 353 363 438 445 438 422 405 394
323 325 321 286 281 276 274 263 261 263 252 252 252 270 262 259 249 243 247 230 244 244 242 237 235 241 246 247 247 246 244 242 246 247 254 262 263 280 275 287 289 306 339 377 367 352 434 455 449 438 424 403 393 384
327 321 286 279 272 274 259 263 260 252 250 262 266 261 245 244 245 233 246 242 243 242 237 238 238 239 244 245 249 250 247 248 251 247 256 266 272 282 278 293 294 311 377 370 359 466 465 455 443 431 413 395 387 377
324 291 280 274 274 258 256 254 256 259 265 254 244 244 240 236 249 253 247 246 224 238 242 244 245 243 248 249 249 249 248 247 247 258 261 280 276 290 278 303 295 314 385 363 385 471 403 405 398 413 411 396 384 374
294 280 273 270 261 259 269 276 262 252 252 242 243 244 246 252 244 246 223 248 248 248 244 241 240 245 241 240 247 250 248 243 246 255 272 292 285 298 279 306 296 310 372 365 458 409 423 425 416 410 398 396 386 377
273 272 270 269 256 250 248 245 245 251 243 246 244 242 248 248 242 239 236 247 249 248 246 245 239 241 242 238 247 252 250 244 255 267 291 289 289 274 283 305 303 310 367 468 434 401 396 396 386 373 368 421 408 395
255 255 250 249 250 247 245 245 244 245 247 250 249 248 245 245 241 233 241 246 245 243 242 241 241 242 245 244 258 254 252 255 260 295 290 292 300 287 308 298 312 369 370 460 423 398 399 399 398 384 368 361 358 353
252 251 253 251 249 249 246 246 248 248 248 244 240 242 241 242 242 240 240 245 241 240 239 242 240 246 240 240 251 251 264 271 296 288 287 302 297 291 306 303 319 376 398 415 422 391 411 402 383 379 366 358 350 357
255 253 254 255 250 247 245 243 242 242 243 242 237 234 237 239 233 237 238 239 235 236 239 244 242 254 241 240 256 270 272 292 291 281 287 293 292 303 297 315 379 367 426 401 393 378 418 410 390 373 366 355 348 356
254 256 253 248 247 246 241 240 236 234 234 238 235 231 233 239 235 235 235 239 239 242 244 239 240 251 258 266 271 274 287 297 281 279 292 303 296 305 311 363 369 419 397 401 397 423 426 414 387 368 351 351 362 365

GFSWCAN_2pvu_pres_096.txt.gz
Presure
246 263 263 243 244 245 255 241 245 253 251 251 242 244 254 263 273 283 274 293 317 313 323 318 334 358 388 383 322 302 297 293 292 284 313 283 258 248 256 267 274 275 270 264 261 259 251 258 255 256 251 248 250 246
258 251 268 260 259 253 255 254 251 253 244 243 249 253 260 269 280 269 302 300 313 297 319 319 354 362 382 373 337 306 290 300 288 282 285 268 255 248 250 260 271 267 269 264 258 259 256 253 258 259 258 253 254 256
250 254 254 253 252 250 252 250 247 242 242 252 254 262 270 282 276 288 298 316 306 294 314 353 360 378 370 356 347 323 290 293 291 289 278 277 258 249 249 255 271 273 268 268 260 167 266 268 265 265 263 262 257 251
266 262 258 255 252 251 248 248 248 255 258 262 270 277 288 289 303 297 319 308 294 315 363 354 369 368 359 353 343 310 302 284 288 282 279 273 267 254 249 282 277 272 268 260 258 259 255 244 254 256 256 259 260 263
294 288 284 278 277 276 272 270 268 274 279 285 288 298 291 298 310 311 311 298 305 311 361 357 365 346 348 328 325 292 291 291 292 286 286 278 267 254 251 259 292 274 270 268 263 261 261 258 255 255 257 262 267 273
298 281 270 270 274 290 290 293 294 280 268 281 284 321 313 316 311 319 296 288 301 330 337 328 329 317 311 301 294 294 286 283 285 290 288 283 276 259 252 250 254 290 275 274 270 260 258 258 261 256 263 275 254 257
342 347 345 330 329 338 341 337 334 329 325 318 317 313 313 312 319 311 285 289 293 310 308 303 303 302 298 300 290 289 284 288 288 286 288 284 279 269 263 261 254 256 265 284 283 282 277 278 275 260 259 269 271 283
357 355 348 343 340 337 339 336 331 328 323 319 315 318 317 328 321 291 278 287 285 293 295 293 288 282 281 283 282 284 287 295 313 334 330 295 298 291 282 274 265 263 259 259 264 271 275 278 278 277 276 274 272 280
394 406 398 383 383 355 346 332 331 324 322 320 323 331 331 320 302 282 270 293 285 283 281 273 273 268 264 266 262 264 270 276 315 353 357 353 355 347 296 295 289 276 270 266 260 260 260 260 262 264 265 267 269 270
377 375 368 366 358 348 336 332 331 327 331 338 338 333 326 305 285 274 283 290 277 280 268 266 268 267 267 266 265 267 269 326 363 354 353 354 348 346 347 352 304 294 293 293 291 288 288 287 284 286 287 292 301 302
369 364 359 355 351 341 337 336 336 336 335 332 327 316 303 285 279 267 313 289 275 276 272 269 272 267 263 263 265 276 356 360 354 356 357 347 342 336 337 347 350 358 353 357 349 338 321 341 333 329 328 323 333 319
358 362 362 357 352 341 337 330 330 331 330 317 309 304 290 279 270 266 311 288 276 273 271 268 264 269 259 263 322 392 369 363 355 348 341 336 339 346 344 352 366 333 328 349 335 333 327 315 335 330 331 319 321 319
353 355 358 341 337 328 341 326 324 329 316 305 300 295 281 274 262 273 327 290 275 270 272 269 266 257 256 356 369 366 360 348 342 328 324 321 323 322 321 320 319 323 324 317 314 312 312 308 308 311 310 306 296 311
348 343 337 334 328 322 317 319 326 314 305 301 293 284 273 262 274 284 334 295 270 271 270 260 259 253 331 316 309 301 300 298 295 289 287 278 281 280 278 281 281 283 278 277 272 272 274 273 275 278 275 277 285 282
325 316 311 312 316 324 326 321 311 304 300 248 288 266 268 271 242 330 340 302 269 275 257 261 255 278 292 285 290 290 281 270 270 274 275 277 275 273 272 272 270 268 267 264 264 264 209 268 270 270 271 272 218 186
297 296 309 323 324 320 314 310 303 300 165 244 212 260 268 232 269 318 340 300 269 257 264 258 263 300 292 287 274 259 276 275 259 262 265 259 254 258 257 258 248 250 254 262 259 263 263 264 265 266 269 270 274 274
296 300 320 318 310 306 303 298 299 297 280 283 262 199 268 286 302 314 334 273 258 248 248 255 287 304 276 262 297 272 250 263 255 258 245 235 256 258 248 248 249 251 267 271 272 270 297 256 255 266 286 289 292 289
298 310 307 305 304 301 299 298 297 293 288 286 279 198 284 246 302 309 331 266 254 241 255 275 307 263 248 273 263 255 256 234 246 255 255 245 246 249 250 240 251 261 264 262 264 279 276 277 276 286 331 340 374 376
308 303 297 296 297 293 295 294 291 287 294 298 302 308 314 344 330 337 326 268 249 252 268 287 261 248 242 261 254 251 249 252 246 243 249 240 242 245 252 244 264 261 265 265 264 279 267 294 333 360 365 368 368 365
322 375 310 304 304 304 306 308 306 313 323 328 344 361 366 378 396 362 257 266 266 298 278 277 251 242 254 252 247 251 240 246 237 242 251 253 254 249 254 255 259 274 271 271 267 282 264 311 364 376 376 374 373 370
335 351 353 357 347 352 351 353 358 349 344 346 357 361 310 326 319 293 273 278 303 270 286 248 263 257 249 246 237 236 238 251 253 252 254 254 250 250 251 252 259 261 272 280 276 292 302 357 384 369 364 365 375 439
315 312 316 326 345 339 339 340 345 346 349 361 320 295 316 295 286 283 266 275 276 255 264 259 250 249 238 237 247 253 250 249 248 239 250 247 248 250 247 264 282 273 292 283 284 296 309 383 379 367 413 467 462 454
320 316 316 319 321 324 334 335 339 344 351 313 287 287 288 302 296 272 266 276 255 261 252 241 234 233 244 249 250 246 248 247 243 247 250 245 242 255 255 256 289 283 307 282 304 301 318 381 370 454 476 414 437 444
326 324 327 327 328 329 324 334 327 332 296 291 301 291 283 273 258 276 262 262 251 242 238 236 245 246 247 238 246 248 252 246 245 246 247 245 246 243 261 289 291 296 293 304 301 307 366 378 408 439 417 416 411 433
319 331 329 341 349 340 303 305 311 303 294 262 268 266 264 271 265 259 249 245 237 242 248 241 237 241 244 244 247 249 244 245 246 247 246 247 244 255 288 287 280 299 295 300 305 326 383 370 448 421 399 395 390 413
325 316 285 278 298 303 262 262 262 254 280 261 270 266 265 253 248 240 236 250 247 241 227 244 238 241 238 244 243 239 236 244 249 251 251 254 263 285 286 282 278 273 304 303 314 326 373 457 436 412 397 401 392 377
284 296 301 274 263 258 254 258 261 261 270 264 254 249 250 244 235 249 246 247 234 231 245 245 239 239 241 241 238 245 239 244 251 251 259 264 291 284 282 278 300 306 296 307 316 369 383 439 428 399 394 405 399 388
284 269 269 261 260 250 252 262 269 263 257 249 250 240 240 250 252 248 246 247 249 250 245 244 245 239 236 239 240 241 239 239 243 254 254 289 287 279 279 286 307 312 305 310 320 383 418 404 394 389 379 409 393 381
256 265 259 256 255 254 265 264 255 250 243 249 248 247 245 248 246 248 239 245 248 246 242 238 236 239 236 239 244 249 248 245 266 254 280 295 285 280 285 269 315 323 306 311 346 427 418 445 441 423 416 414 405 385
255 258 259 265 270 264 256 252 247 248 247 239 239 248 244 241 239 241 244 238 242 239 236 236 236 239 240 236 237 250 246 277 257 275 291 294 282 285 294 314 328 306 309 321 400 418 469 457 443 431 427 422 407 379
267 278 261 253 248 246 245 247 247 245 241 245 248 246 242 242 242 234 239 237 236 228 228 231 237 238 242 248 261 255 271 266 273 286 297 287 287 296 316 327 307 308 316 381 434 482 465 452 437 399 377 366 355 354
252 248 251 250 243 237 245 248 247 247 244 240 240 238 235 239 237 240 228 240 235 238 240 239 241 239 241 260 255 249 274 267 288 293 292 287 283 313 322 311 307 313 333 421 410 422 392 381 377 367 362 363 369 379
252 249 246 246 245 247 246 244 242 242 241 239 237 235 229 233 234 232 229 239 241 240 239 238 239 249 248 258 271 275 269 288 294 297 283 288 308 324 317 299 310 322 376 415 397 397 385 379 374 367 370 431 453 463

GFSWCAN_2pvu_pres_102.txt.gz
Presure
237 235 238 226 230 240 230 225 236 242 242 232 241 239 239 244 250 267 255 251 253 260 249 252 264 267 279 301 341 339 388 358 320 289 294 275 268 270 262 270 260 261 266 258 260 252 239 239 237 235 236 231 230 228
245 237 243 227 235 246 230 235 229 234 237 231 240 248 243 246 245 245 244 250 259 251 244 256 265 273 293 325 334 375 378 387 328 297 291 284 280 272 276 266 265 261 263 248 265 263 256 246 244 240 238 236 237 238
248 235 234 239 243 241 235 242 250 241 242 247 241 252 245 265 262 253 251 245 249 260 257 265 276 288 306 336 379 376 384 399 325 302 281 290 270 276 272 274 278 242 256 265 268 267 242 246 245 244 244 241 241 240
247 247 231 245 252 247 246 246 239 237 241 244 242 256 244 251 253 248 249 258 250 265 263 273 287 301 339 377 388 379 381 384 361 305 297 283 290 274 259 268 269 268 255 252 259 265 269 269 259 256 251 253 256 256
247 251 255 248 240 238 239 239 233 248 248 252 264 258 256 258 245 254 254 259 256 257 273 292 282 337 367 384 385 363 364 344 370 326 303 300 289 290 275 261 260 262 265 264 269 261 262 263 278 275 269 268 266 261
258 256 253 251 248 249 242 242 245 244 253 262 259 262 248 251 245 253 255 254 259 278 270 267 334 334 370 358 345 333 331 336 346 347 308 286 287 293 294 283 273 261 261 261 256 256 256 260 273 269 277 272 270 267
266 256 262 270 275 278 275 267 255 258 251 247 246 251 250 253 257 256 250 280 278 266 279 326 318 331 344 362 337 323 319 319 320 333 328 290 287 287 282 283 287 300 280 266 258 254 256 256 257 278 275 269 268 267
265 264 263 263 264 263 261 259 259 257 256 257 258 258 260 258 264 278 280 265 270 332 322 309 306 317 315 312 309 308 307 315 318 323 333 340 307 298 290 286 280 277 282 279 267 253 249 253 249 259 280 281 280 278
282 286 285 279 270 261 259 259 261 259 257 264 268 271 283 268 263 281 267 292 331 321 307 300 297 304 303 292 294 292 292 293 294 293 290 291 292 301 298 307 305 301 288 277 267 262 254 254 259 264 275 284 283 280
270 270 269 269 274 278 279 279 280 299 287 305 292 269 266 264 266 352 338 329 320 314 298 293 293 292 288 288 286 280 284 282 281 282 282 283 285 291 298 309 316 305 307 293 286 279 267 260 258 257 257 258 259 259
329 321 293 277 273 272 266 266 268 270 272 271 283 280 334 328 336 336 327 314 317 302 290 286 285 281 279 275 276 269 270 270 271 274 272 274 278 332 285 306 353 342 340 316 302 305 289 279 272 266 264 264 263 261
377 375 374 377 370 357 351 355 354 347 332 322 321 326 323 337 332 328 312 312 312 288 283 285 280 272 273 271 265 267 266 269 269 266 368 365 355 351 349 349 349 350 360 360 365 371 371 373 371 366 365 361 353 350
370 369 366 358 360 363 362 357 350 338 334 321 321 324 328 330 329 316 309 310 293 285 282 277 272 269 265 267 272 265 263 312 367 352 351 349 341 328 326 325 326 326 326 325 317 313 313 307 303 304 302 301 300 298
347 349 356 371 379 373 359 348 343 339 327 323 322 326 331 326 315 315 313 302 273 289 279 273 267 260 267 262 394 362 352 340 324 316 310 301 294 293 291 288 291 287 288 287 287 286 286 285 283 283 280 278 278 280
336 339 343 353 367 379 370 350 341 336 332 328 331 332 323 315 315 308 301 272 286 289 276 272 265 266 264 327 318 314 308 300 292 286 282 280 279 275 273 275 276 274 271 270 268 266 265 267 270 271 273 275 276 277
331 334 347 359 360 371 368 344 339 336 331 325 325 319 317 161 167 297 280 263 305 281 272 268 262 264 303 309 292 281 272 283 276 275 276 270 264 263 269 265 254 254 249 259 261 263 265 260 263 270 263 265 284 295
331 344 354 350 352 353 350 338 330 324 322 324 317 312 305 303 292 280 268 279 297 277 271 260 261 273 277 271 250 282 271 272 275 245 268 266 237 246 258 261 259 250 193 257 261 264 262 261 268 261 296 294 293 286
349 349 345 341 337 332 326 323 326 328 324 314 304 279 301 285 280 272 267 306 293 270 270 260 264 282 287 263 266 271 264 246 260 248 247 258 235 255 251 253 256 256 255 251 254 251 258 264 263 289 287 282 285 297
347 342 331 328 323 320 324 325 323 316 245 287 296 297 287 280 275 266 272 331 286 273 265 256 272 289 266 269 253 257 246 255 254 243 250 249 248 253 257 254 251 250 248 250 252 258 275 282 291 284 275 289 310 298
339 336 334 328 323 320 202 311 208 203 223 169 227 290 282 277 271 274 292 331 276 268 256 262 291 270 268 262 266 256 245 257 248 244 249 249 251 247 247 249 250 250 251 259 256 268 277 290 292 274 287 314 326 317
321 322 321 317 315 319 317 304 299 216 294 293 291 281 278 277 278 290 331 338 274 263 261 271 296 267 251 244 251 249 250 243 251 249 247 247 246 246 246 248 246 248 253 263 256 269 286 289 275 285 314 325 306 305
322 319 318 316 312 304 302 299 299 289 266 222 281 213 274 235 280 295 328 264 256 258 265 298 267 253 243 254 253 242 245 251 249 253 246 240 241 238 250 238 240 251 262 259 263 277 295 278 277 315 329 306 305 330
307 307 303 300 299 297 295 298 296 296 291 289 284 283 277 278 285 304 309 265 246 259 297 270 275 250 255 246 238 249 245 247 247 240 237 239 241 241 243 244 245 253 259 264 289 293 278 291 317 323 300 304 333 396
300 299 299 301 297 298 297 299 296 293 292 291 290 286 285 289 295 310 265 253 252 278 269 250 257 251 238 252 238 246 243 240 238 237 239 241 252 245 241 256 251 254 277 293 285 279 303 316 318 301 302 340 400 417
291 291 288 287 289 291 291 291 298 292 297 291 294 301 309 318 319 307 267 257 271 270 261 254 238 246 236 245 244 240 239 237 234 236 231 229 241 241 260 252 252 287 277 281 277 306 313 311 302 301 340 367 390 424
324 324 327 330 338 347 353 362 352 343 332 333 361 383 385 399 404 263 265 279 257 258 239 242 238 239 244 240 239 235 235 231 236 238 230 251 239 270 253 257 284 277 278 291 303 311 312 301 302 329 356 390 425 423
314 316 321 325 329 337 345 356 359 365 369 369 361 340 310 273 274 265 260 259 243 243 240 242 247 239 239 236 236 233 236 229 228 242 240 251 272 253 247 288 282 277 298 293 309 315 301 302 318 348 389 412 422 406
318 321 324 333 338 344 350 332 327 324 314 286 283 280 284 274 265 250 247 236 228 237 249 243 242 236 233 228 231 234 230 232 230 239 249 264 245 271 280 281 283 284 284 296 311 305 302 314 337 388 398 425 418 410
325 328 292 339 315 313 295 286 290 296 279 276 280 266 253 250 248 244 238 245 250 249 244 237 233 229 228 237 236 231 234 235 234 247 238 253 270 266 277 289 273 282 293 306 324 304 313 334 389 390 434 425 413 393
283 297 283 291 293 296 281 280 278 268 266 253 246 250 248 246 240 251 252 246 241 239 237 232 230 236 234 233 237 235 233 232 240 237 259 274 268 271 281 271 284 287 295 304 306 312 327 397 391 442 432 415 395 376
290 294 308 280 270 268 267 267 260 249 250 248 246 247 255 250 248 241 235 236 231 237 231 233 236 230 229 232 233 238 236 240 234 238 267 269 270 274 278 289 283 293 293 307 310 321 400 391 443 440 421 398 375 434
278 275 281 274 269 255 255 249 254 254 247 247 252 245 243 243 240 237 240 245 229 232 237 235 235 235 226 231 231 241 245 247 244 265 264 276 269 277 280 287 291 296 299 308 318 360 392 442 447 428 402 377 424 401
279 269 267 245 250 254 254 253 247 252 246 241 243 242 240 237 227 225 229 232 238 241 239 238 231 230 233 239 240 242 248 243 261 268 273 273 279 281 286 293 296 298 305 314 332 394 370 453 434 407 378 422 401 384

GFSWCAN_2pvu_pres_105.txt.gz
Presure
237 229 229 227 216 215 219 223 221 230 221 230 225 238 234 224 223 237 242 233 238 242 258 262 262 257 263 250 277 288 314 354 352 440 313 297 290 284 270 265 261 252 244 246 239 239 233 239 239 238 241 240 243 234
239 240 232 232 225 226 229 229 226 223 235 225 227 231 229 227 244 232 227 237 255 247 247 245 264 266 258 280 279 307 318 347 385 431 331 294 286 282 284 264 258 260 254 247 239 247 248 240 235 239 240 234 236 234
240 247 244 236 237 232 230 219 234 244 229 226 228 222 227 243 241 228 237 239 242 247 261 269 261 254 273 275 276 291 377 390 382 417 331 301 289 283 275 277 271 247 257 259 251 250 247 244 245 242 235 235 229 226
247 242 245 234 240 240 238 234 231 229 235 231 222 230 240 238 237 243 242 246 239 253 264 263 262 267 268 284 299 392 399 389 389 404 363 312 291 285 272 271 269 274 265 263 249 262 221 239 255 243 230 243 238 238
243 249 245 239 237 236 229 231 228 229 229 234 234 232 238 239 248 249 243 244 255 263 256 257 270 263 280 286 377 395 397 380 381 391 381 308 299 280 277 272 267 264 265 262 242 264 259 263 250 264 257 250 247 245
247 238 241 243 247 245 229 236 238 234 237 241 257 249 249 229 239 238 249 273 250 260 261 262 260 281 285 325 355 362 356 360 328 369 362 325 293 291 291 274 269 276 274 274 274 265 253 260 266 266 270 272 268 263
267 250 243 246 250 249 248 240 235 239 242 246 244 242 254 246 252 253 254 253 245 259 259 262 271 275 350 334 358 342 334 330 332 339 346 326 303 289 289 294 277 271 268 276 264 276 271 268 259 263 260 265 271 273
264 251 249 253 253 253 243 250 254 242 234 245 245 247 256 253 254 246 255 271 259 255 266 281 279 308 326 328 324 324 322 318 317 318 328 335 312 302 301 287 285 297 291 282 270 270 262 263 267 270 266 259 257 259
278 282 278 267 264 266 260 253 254 256 257 252 247 250 263 272 265 261 262 257 261 265 298 264 328 320 321 304 305 303 300 299 304 306 314 324 337 345 295 299 298 297 296 302 305 304 299 304 273 273 262 257 249 249
266 265 266 267 270 276 273 264 258 254 280 277 264 260 254 259 257 261 255 273 300 276 270 334 322 310 308 296 294 290 288 285 288 286 286 288 295 298 312 319 323 325 303 304 305 304 298 293 286 282 276 264 253 250
274 273 268 266 262 261 263 261 259 257 256 254 256 257 257 258 264 281 294 260 271 298 338 322 313 299 298 288 290 283 275 280 279 278 278 280 283 284 285 287 288 291 296 294 303 297 302 299 295 288 285 284 278 274
272 278 280 269 262 256 256 257 258 264 267 271 276 279 271 278 272 260 269 320 334 332 321 313 299 293 290 287 281 275 273 272 273 271 270 269 269 272 273 273 323 326 325 331 354 351 359 365 345 336 335 333 330 325
274 267 266 267 268 270 268 268 268 267 268 267 262 258 258 263 277 325 344 325 325 325 321 301 290 290 287 277 272 273 271 274 268 263 348 359 361 357 351 334 336 336 331 324 323 321 320 321 319 318 313 309 299 295
383 313 295 285 281 279 276 273 275 274 273 272 279 290 344 349 340 337 326 326 318 320 304 291 286 283 277 266 273 273 287 365 350 346 331 317 314 309 305 303 305 305 303 295 288 283 279 275 274 274 274 274 275 276
374 372 371 372 373 376 376 370 363 358 342 340 339 333 336 329 322 235 324 320 323 306 291 285 280 274 262 271 294 357 336 318 309 308 297 294 293 286 283 279 274 269 263 262 262 260 259 258 255 260 252 253 261 271
370 373 365 363 365 366 364 361 358 355 351 341 338 331 325 321 319 323 319 325 309 284 287 280 275 263 263 323 317 309 302 293 287 287 281 275 265 260 259 259 254 247 247 249 260 255 262 258 259 262 262 269 279 286
347 346 352 356 364 368 365 355 349 343 339 332 327 320 156 163 174 184 327 304 285 299 284 278 270 262 292 298 279 268 282 281 278 250 259 264 249 229 232 254 255 251 251 258 259 255 251 252 258 261 260 276 285 298
329 334 340 341 344 357 371 368 346 337 331 328 325 320 319 319 317 319 303 278 282 291 278 269 262 274 277 263 250 255 264 273 248 260 237 253 255 253 252 250 256 256 112 229 251 252 250 263 270 259 273 279 298 296
326 330 332 349 357 367 368 363 343 333 325 322 317 316 311 323 262 302 284 270 304 281 269 265 263 271 272 264 255 260 265 249 237 256 241 247 242 251 250 248 247 249 250 245 248 251 263 262 258 273 290 292 285 282
325 339 349 349 354 354 351 339 333 333 319 312 307 310 325 307 297 286 265 292 296 276 267 265 264 291 276 264 259 245 252 238 252 246 246 248 244 246 244 242 240 246 239 250 252 253 259 267 281 285 278 280 302 316
353 346 347 347 345 345 343 327 169 310 174 186 314 322 303 289 282 285 266 290 295 271 269 259 269 288 271 257 250 238 242 249 241 250 248 250 243 238 239 241 254 245 248 253 255 259 265 284 277 279 299 307 319 309
338 332 332 325 319 277 162 313 313 311 320 318 303 309 286 281 267 268 271 310 304 275 266 265 289 270 273 255 249 246 238 244 249 251 248 238 238 241 247 256 243 247 265 257 257 269 287 276 286 283 300 309 307 299
323 321 319 316 316 308 306 275 202 263 311 232 306 287 234 271 270 275 289 342 323 278 264 269 291 259 250 252 244 238 243 244 247 238 237 236 238 240 252 240 258 261 256 263 281 275 282 276 284 296 311 303 302 319
312 310 309 308 308 313 314 312 310 308 308 301 291 280 278 277 280 290 314 343 288 262 268 298 253 246 257 240 245 240 246 240 237 236 236 237 238 239 244 271 240 254 264 269 274 292 272 284 290 296 303 309 320 347
313 314 313 313 314 311 311 310 306 302 297 289 284 276 276 280 286 301 317 250 259 266 291 250 258 248 242 254 245 242 238 234 235 236 228 236 238 237 248 238 269 264 249 276 269 274 285 288 293 302 305 320 342 397
303 303 300 301 299 303 300 302 303 300 297 292 288 293 286 281 293 305 251 250 268 281 254 256 243 244 246 240 238 236 235 235 235 232 234 235 239 241 238 253 265 260 268 255 276 281 292 291 300 304 316 335 396 392
298 299 298 293 299 289 300 300 305 302 306 297 300 302 307 286 296 313 248 270 266 262 243 247 245 244 238 236 235 229 229 235 235 233 228 235 238 238 239 260 263 275 256 272 280 291 291 298 303 311 327 387 394 417
319 317 320 324 305 308 313 313 308 307 310 312 317 322 333 299 286 264 268 261 253 247 242 250 241 239 237 234 226 237 238 236 233 239 232 240 241 242 257 265 268 265 275 280 281 292 295 303 304 321 344 398 375 456
319 321 327 328 328 338 344 354 362 370 380 388 392 387 371 270 273 263 261 246 240 249 247 244 242 235 228 236 236 235 235 228 236 234 238 245 239 248 264 269 266 276 281 282 284 295 298 304 316 334 401 376 460 435
324 328 335 340 346 355 363 361 332 306 290 277 278 278 277 269 249 245 238 248 250 246 242 237 232 232 236 234 232 229 228 232 238 237 240 244 248 258 270 282 265 281 289 282 289 299 304 309 327 402 381 467 440 405
328 318 310 314 299 289 284 284 283 290 280 272 263 253 252 245 248 252 252 243 242 240 239 230 233 237 237 230 227 229 236 238 238 240 244 247 249 264 275 267 282 285 287 285 294 302 307 320 388 384 460 444 410 428
307 288 287 290 291 278 275 278 269 258 248 252 250 248 242 254 253 243 238 238 231 230 231 238 239 239 233 228 236 241 237 240 239 235 248 249 258 276 271 283 284 289 286 290 299 305 315 354 383 469 448 413 429 409
295 285 280 278 272 275 264 253 248 253 250 256 259 247 247 247 242 232 238 240 234 236 238 240 235 234 231 238 243 238 248 241 236 249 250 256 270 274 285 283 291 287 288 295 304 312 328 385 474 451 413 432 413 403

GFSWCAN_2pvu_pres_111.txt.gz
Presure
265 246 246 241 228 251 227 239 237 238 229 228 218 215 215 218 227 229 231 222 224 219 214 218 225 217 222 243 224 226 252 259 265 271 290 309 375 373 326 297 269 265 263 256 257 244 249 256 240 240 239 231 238 237
256 247 250 242 240 232 238 229 245 233 232 231 231 227 226 228 226 229 226 219 218 218 227 210 220 223 239 218 229 238 252 283 272 291 314 383 373 358 327 305 275 270 263 253 256 253 245 251 242 242 215 219 237 233
240 258 240 247 240 227 235 224 238 236 219 216 228 229 233 232 227 226 220 220 217 224 203 220 224 230 235 234 242 246 255 268 284 295 309 402 393 354 357 294 291 264 257 257 256 252 251 249 245 248 246 250 226 241
242 255 245 246 240 239 234 225 216 236 231 227 232 230 228 226 223 219 219 218 204 210 221 220 228 228 238 242 246 243 264 268 293 302 403 410 390 364 374 291 287 273 262 256 256 252 250 253 251 245 240 246 254 245
244 241 256 247 244 231 239 235 228 234 238 232 220 222 221 220 216 216 219 211 222 224 219 222 231 243 235 252 241 261 258 289 314 414 418 402 381 388 374 309 280 280 268 265 259 258 253 254 252 251 244 235 244 249
258 245 244 242 237 240 242 237 231 231 230 216 225 225 223 226 221 227 215 228 215 224 249 229 236 237 236 245 253 258 281 290 289 371 378 407 383 412 336 329 285 277 274 272 263 260 253 259 253 253 255 249 245 243
250 253 247 247 243 254 232 221 227 232 224 217 210 218 219 219 219 218 210 236 231 232 234 232 232 237 252 252 257 288 280 285 352 353 358 386 401 422 352 344 298 282 277 272 272 266 259 257 257 262 257 261 258 255
252 256 254 251 250 254 244 237 238 221 227 227 224 217 222 228 229 227 229 227 239 227 239 232 242 215 240 254 269 272 282 303 340 334 335 347 362 386 383 328 322 291 285 281 274 273 270 264 258 258 262 262 260 261
260 251 251 252 257 246 241 243 242 228 224 227 229 220 228 228 228 228 235 221 245 234 234 237 246 254 264 269 268 278 273 332 323 317 324 333 328 340 358 357 335 314 286 281 285 281 274 269 272 272 272 272 271 267
255 259 246 251 243 238 241 247 243 242 242 236 233 227 224 226 238 230 238 245 235 241 237 241 279 251 271 263 269 257 331 316 305 304 301 300 304 316 332 337 340 338 313 294 281 281 285 281 284 278 281 277 279 288
256 251 244 243 255 247 240 239 238 243 241 232 237 237 242 240 236 236 234 230 238 243 248 263 271 271 264 270 256 340 319 306 295 297 294 289 286 286 291 299 311 327 333 332 318 310 302 298 300 306 308 313 313 301
272 258 248 249 257 258 254 243 239 239 243 244 245 242 237 237 243 237 244 249 255 256 261 275 260 263 275 258 343 322 316 301 292 292 289 282 281 278 279 282 285 291 298 309 319 333 337 309 284 277 275 311 333 315
278 274 256 248 246 243 253 263 259 254 250 247 246 244 247 248 250 244 243 254 271 275 270 258 265 284 266 349 332 321 307 296 290 282 276 276 274 273 271 268 267 268 269 268 267 265 312 315 309 297 294 287 285 284
273 266 270 266 263 259 253 252 254 252 250 247 251 249 250 250 257 264 272 269 263 256 260 267 257 266 347 332 323 307 296 292 280 273 278 281 276 359 356 360 352 315 302 295 291 290 286 283 280 275 274 266 262 263
276 271 267 270 280 274 264 258 258 262 264 264 262 266 265 263 266 264 261 257 250 265 258 261 293 351 333 320 305 297 284 274 281 364 353 350 341 313 295 287 284 281 280 277 272 270 265 261 261 258 251 251 253 261
275 275 271 264 260 269 266 268 267 267 265 263 263 261 259 258 260 260 258 265 266 257 264 337 346 337 318 300 292 278 274 362 353 338 314 290 283 279 279 275 271 265 260 256 251 251 251 249 250 252 257 253 260 266
269 270 269 270 268 264 250 249 250 249 248 249 261 262 259 261 269 278 257 253 264 269 347 347 335 313 298 285 275 348 335 325 296 281 276 277 272 266 261 251 249 251 248 249 255 265 259 254 246 263 261 263 266 263
268 257 256 260 265 266 269 271 269 269 265 258 255 257 257 256 252 262 267 272 352 339 343 332 313 295 283 275 334 317 296 280 273 272 265 259 251 249 252 236 250 251 249 258 255 247 252 265 263 261 267 254 262 273
290 281 278 279 280 276 274 270 270 268 268 264 267 270 272 273 274 306 353 344 334 339 334 311 297 283 272 317 305 287 273 263 264 252 251 246 243 248 251 248 244 245 255 253 259 251 252 258 262 262 258 269 275 276
346 343 332 295 291 287 285 285 285 283 288 315 342 352 345 153 292 297 338 328 332 332 313 297 283 274 310 285 287 272 259 266 247 248 239 245 245 247 245 247 242 248 249 239 246 239 251 253 258 250 271 277 272 272
372 365 365 364 365 371 371 386 384 373 377 369 361 358 358 350 342 336 321 326 327 311 297 285 276 276 288 276 282 260 266 250 250 248 248 248 251 246 240 235 239 235 241 242 238 239 243 252 248 262 271 273 277 280
385 383 378 379 376 378 366 377 370 365 364 356 356 354 350 342 335 320 225 323 311 296 285 282 273 274 280 279 268 260 243 251 249 247 247 251 244 241 236 237 239 241 240 240 238 239 245 248 254 259 267 277 279 289
356 357 356 351 347 347 351 360 366 360 349 345 346 343 342 331 317 319 319 318 295 291 288 281 270 270 280 277 265 259 251 252 249 249 249 242 238 237 235 235 232 239 241 239 241 241 246 247 253 264 268 281 289 291
328 330 334 343 350 358 368 365 357 347 214 337 336 334 325 323 318 319 320 296 294 295 285 273 264 275 282 275 263 253 251 255 250 247 243 239 235 232 232 237 235 237 240 239 244 245 248 251 252 276 288 285 290 294
345 352 353 360 370 369 360 173 343 227 185 336 329 329 324 320 318 320 290 276 298 291 282 271 264 275 303 279 259 260 252 252 246 244 237 238 235 235 235 232 236 238 233 237 241 250 251 251 277 284 280 290 297 300
335 340 341 340 335 335 331 331 331 331 322 330 322 324 317 312 315 282 273 291 313 293 278 268 271 284 301 263 257 250 250 249 241 237 230 235 231 234 235 235 236 228 236 239 248 253 251 277 276 279 286 297 303 306
322 314 319 320 320 275 199 289 327 320 320 323 314 303 303 304 284 269 274 281 294 311 285 267 276 294 263 260 251 252 248 240 236 238 236 232 229 234 235 239 234 239 239 249 246 251 266 277 284 284 290 298 304 314
311 310 317 325 306 320 314 318 323 319 318 304 298 297 290 284 288 277 277 286 317 344 268 272 289 268 261 253 252 245 235 231 232 230 231 233 239 233 237 239 233 242 247 244 252 261 271 281 291 287 294 303 311 327
309 315 315 315 313 313 313 315 318 314 308 299 296 291 289 281 283 288 303 308 313 275 276 280 262 259 255 247 243 237 238 236 230 231 231 241 235 236 240 234 241 240 249 252 256 265 278 296 293 292 302 307 316 338
301 301 305 311 314 315 312 316 312 314 307 295 288 285 287 289 295 300 307 281 272 283 275 263 257 255 247 242 235 234 232 235 233 232 234 234 236 242 239 241 236 248 252 255 266 274 279 302 294 298 304 314 330 446
295 296 294 296 301 306 310 314 320 318 309 305 298 285 288 295 300 305 254 275 277 266 257 250 250 249 240 236 235 238 240 235 230 237 237 230 237 241 240 237 245 250 256 264 274 278 281 306 295 303 309 319 356 446
323 329 335 333 336 344 353 355 342 327 330 323 301 302 298 307 281 259 274 279 263 249 252 251 249 238 232 237 242 241 236 233 229 238 238 237 242 240 241 241 256 257 264 266 277 279 288 310 305 303 313 332 446 414
326 334 337 337 338 343 348 352 363 370 381 320 315 337 320 294 261 279 276 251 250 252 252 244 233 235 237 238 241 235 237 246 237 240 239 243 242 242 236 260 254 264 264 273 279 281 312 312 303 309 323 444 414 436

GFSWCAN_2pvu_pres_114.txt.gz
Presure
260 243 247 237 253 248 249 236 238 241 231 238 230 252 229 245 221 223 225 228 212 208 219 212 208 219 225 222 215 212 214 218 230 234 248 245 267 298 311 397 345 318 289 279 258 262 261 255 250 250 244 240 260 237
256 245 249 231 254 234 245 238 217 219 230 239 224 216 237 230 231 223 217 212 220 213 217 224 223 217 213 213 210 214 221 236 234 240 243 263 291 307 401 385 348 313 291 285 272 250 253 253 242 234 262 237 231 235
258 259 254 240 248 241 237 233 243 221 210 243 237 233 210 217 228 233 233 213 220 224 223 225 220 222 209 212 216 218 229 233 241 244 257 263 295 418 397 384 344 309 289 280 276 256 260 253 240 248 240 243 244 227
251 248 254 255 230 251 239 237 236 239 233 243 243 221 219 230 219 218 221 225 217 228 218 217 224 202 208 216 225 234 238 235 245 252 262 294 300 417 396 377 344 303 298 275 273 271 253 259 254 246 248 245 242 241
246 260 248 258 233 247 250 218 237 219 218 226 251 245 242 226 231 225 224 230 228 218 216 211 219 213 219 222 228 227 236 242 249 254 281 300 427 413 390 377 340 305 293 280 270 267 260 257 248 253 250 247 242 244
252 240 252 236 242 239 231 247 232 226 220 240 237 242 223 226 227 233 226 222 216 213 212 221 218 222 224 231 228 233 237 245 262 274 296 292 394 421 382 384 379 313 291 290 273 268 265 260 260 251 251 251 251 247
257 246 251 239 250 241 238 235 229 220 242 216 217 228 233 229 226 215 221 225 219 220 222 217 227 222 231 236 237 241 237 255 275 281 286 362 374 408 381 376 379 321 297 283 284 278 266 260 257 261 261 260 258 256
254 240 246 242 250 249 232 240 238 235 230 222 225 217 232 232 218 226 218 216 216 218 222 224 228 219 238 236 231 238 246 273 273 284 294 352 352 366 396 421 381 331 306 289 279 278 276 274 272 269 260 257 255 259
265 242 249 243 241 245 236 231 233 236 228 238 229 226 230 233 217 215 210 213 221 226 218 221 230 238 225 233 238 246 262 269 279 270 334 326 334 345 358 394 378 316 318 298 286 280 273 272 274 275 275 274 270 266
263 254 243 242 238 232 250 247 232 241 238 229 236 224 229 230 227 220 226 226 223 219 225 235 238 224 227 242 245 263 266 271 270 330 319 307 306 309 320 344 372 370 335 319 300 287 281 279 280 280 277 275 274 273
269 250 244 250 254 245 238 237 233 233 249 242 228 218 227 233 224 224 224 216 226 231 241 229 221 238 243 243 273 266 269 268 335 323 309 296 297 290 293 297 311 341 360 344 326 310 293 286 281 277 278 279 279 279
266 265 256 245 245 249 246 249 250 256 250 247 246 237 233 225 227 228 231 233 239 235 224 238 251 242 251 274 258 270 269 322 332 321 301 292 290 285 282 284 284 288 298 317 332 335 333 324 316 310 306 308 320 302
266 266 262 261 253 248 247 250 252 254 247 232 237 235 240 241 237 238 236 237 227 234 243 241 244 269 265 257 268 262 299 343 326 310 295 286 279 277 275 274 274 273 273 276 277 279 279 278 276 273 271 305 293 286
266 266 260 264 257 255 245 244 244 242 239 234 231 232 230 237 239 237 245 249 245 245 243 261 274 255 258 262 256 288 345 330 313 299 289 279 275 276 272 270 267 269 277 277 316 307 300 291 285 279 279 274 267 262
272 263 264 257 261 255 254 246 243 248 253 244 244 244 240 240 250 243 246 248 249 208 266 267 256 260 258 261 269 343 330 313 300 288 279 289 361 305 346 319 306 300 296 287 281 275 273 270 267 261 259 259 256 250
276 273 267 262 255 253 252 249 243 240 253 246 244 239 244 249 238 249 251 258 261 259 261 254 267 251 259 269 346 327 314 297 279 339 368 345 314 303 293 287 285 276 272 267 263 258 255 251 251 251 251 249 246 257
273 265 259 273 269 265 257 253 251 246 247 249 254 257 248 256 248 255 252 260 261 261 261 259 251 260 273 345 327 312 290 277 370 352 306 297 287 283 279 273 264 260 252 248 251 256 257 253 251 260 262 266 257 252
269 270 267 268 270 272 275 271 263 259 247 261 262 261 263 269 267 261 261 266 263 261 248 250 264 291 348 329 309 287 354 351 315 294 286 279 277 266 261 252 248 248 249 250 252 247 252 247 249 253 252 251 250 255
269 269 267 274 275 272 268 264 267 263 261 259 255 262 265 257 268 266 261 253 245 250 265 270 360 351 330 310 289 346 323 297 287 283 276 260 258 249 251 242 245 247 246 247 249 240 241 241 243 244 243 248 247 254
264 261 264 270 270 270 271 271 269 270 273 271 266 263 260 255 251 252 257 263 269 270 295 356 349 332 308 293 321 320 291 282 278 268 256 252 250 248 244 246 247 241 240 238 237 239 241 242 243 245 245 249 255 251
277 278 278 274 260 255 253 252 252 251 249 249 248 259 270 230 263 265 268 274 355 344 349 347 332 308 296 304 315 289 276 273 260 258 247 247 248 248 247 247 239 237 236 241 236 243 241 240 244 242 248 258 254 271
292 287 283 281 277 274 273 273 272 272 270 271 270 275 277 277 282 310 348 350 343 342 338 334 317 299 284 311 297 280 271 264 260 248 248 250 248 250 245 239 236 235 234 236 231 238 239 239 240 246 248 251 261 272
341 327 319 309 303 301 298 294 293 296 296 320 322 349 365 379 365 360 347 340 338 333 332 320 299 288 290 293 280 270 270 261 258 249 251 251 252 246 239 237 235 235 237 236 239 237 242 239 246 241 252 254 261 274
388 359 357 351 357 353 383 365 396 378 391 382 379 377 371 362 355 347 335 333 330 326 323 307 290 280 285 284 261 277 260 262 248 255 255 252 248 239 237 234 236 237 237 237 241 238 241 238 242 254 251 259 268 274
371 373 368 358 369 362 362 363 365 371 359 365 361 356 352 350 343 334 328 328 321 325 308 296 284 279 282 277 282 281 265 256 254 257 252 249 241 237 237 234 235 235 236 242 237 245 238 240 244 252 255 271 273 281
333 340 339 342 352 354 182 361 361 361 181 350 346 344 338 335 325 317 321 317 329 310 296 286 284 273 273 285 269 277 265 254 252 251 249 241 238 237 234 233 234 236 239 243 240 240 229 240 252 253 262 278 277 289
356 358 360 368 369 374 373 369 356 348 340 336 333 328 321 315 313 318 325 331 303 295 295 292 281 266 269 284 287 273 263 255 251 249 241 240 241 234 232 239 239 239 246 239 242 230 239 254 250 261 265 281 284 300
326 334 335 346 346 349 343 339 331 322 321 323 324 317 313 316 314 332 293 285 279 313 315 293 278 270 275 292 293 276 258 252 250 243 235 238 233 230 233 239 235 240 243 241 236 241 240 256 252 264 271 284 293 315
317 321 314 322 314 312 205 206 316 316 316 318 317 323 319 313 331 285 275 278 288 294 305 305 271 276 287 278 275 260 251 251 243 236 237 234 235 233 238 239 231 240 241 241 242 240 243 253 265 265 284 288 302 329
329 324 309 323 317 321 320 313 313 316 326 325 320 315 315 315 269 270 275 281 286 300 311 310 273 282 276 274 260 247 252 242 239 235 237 237 232 236 241 240 239 239 242 237 251 237 258 253 266 277 287 298 321 322
308 309 307 315 320 320 320 319 321 318 324 318 311 313 313 287 289 279 279 292 312 319 270 276 280 281 265 254 250 247 238 237 240 240 239 235 233 240 238 239 231 241 243 247 243 245 252 269 267 286 297 318 329 312
297 305 303 303 303 309 312 321 320 318 324 310 307 306 292 279 285 295 302 309 270 276 276 276 273 251 253 251 243 236 237 242 242 238 232 241 245 235 238 231 240 246 242 250 243 256 269 267 284 295 316 330 312 328
318 319 325 329 334 339 343 324 323 326 321 320 304 296 301 293 293 302 263 265 276 280 275 259 253 253 252 241 238 237 232 241 242 242 245 244 234 232 235 237 245 249 245 248 258 262 273 282 296 317 327 316 323 330

GFSWCAN_2pvu_pres_117.txt.gz
Presure
263 247 253 252 255 247 248 253 242 248 246 238 250 250 238 250 241 248 248 240 241 233 236 231 222 213 216 210 213 214 225 217 210 205 220 216 226 243 247 255 278 299 296 359 345 300 279 270 250 254 251 258 234 222
256 248 272 260 254 242 252 243 250 249 222 242 251 245 248 243 244 247 234 244 236 228 226 220 221 207 218 212 222 223 219 213 204 214 214 232 238 240 260 279 293 295 394 354 324 313 287 268 261 245 248 246 248 241
252 259 249 265 239 243 253 252 256 236 243 239 252 222 243 233 244 239 231 225 223 226 220 205 214 211 218 225 219 220 207 208 211 220 230 237 231 247 267 298 301 408 383 347 310 306 295 274 262 258 244 249 240 237
253 252 250 253 243 257 241 250 232 228 246 238 222 233 246 225 219 236 219 216 213 213 218 210 215 224 223 223 216 211 202 214 221 231 233 237 248 261 287 301 420 401 364 340 306 293 292 286 259 251 256 250 259 248
251 257 243 243 237 233 240 254 247 230 246 237 231 229 241 220 227 239 229 217 218 210 217 216 229 225 217 215 205 204 219 220 231 241 233 235 255 278 297 395 406 395 352 336 308 294 288 283 271 262 250 251 246 241
255 254 237 246 246 227 256 244 241 242 246 214 239 225 233 233 230 225 224 222 218 220 228 227 224 220 214 212 214 215 224 232 238 234 239 249 261 288 285 434 398 379 359 330 311 296 287 284 274 269 261 249 251 247
251 256 243 243 238 236 235 249 237 249 248 228 222 232 248 230 226 221 218 223 225 226 229 220 217 211 215 211 217 220 232 234 238 237 248 259 286 288 378 429 386 394 368 327 313 295 287 282 274 271 267 264 253 249
252 252 239 250 238 236 226 237 217 229 241 219 218 228 230 244 222 235 222 215 229 220 219 221 220 218 220 217 217 228 233 234 238 247 255 283 280 284 352 373 438 387 369 331 310 299 284 284 281 273 267 265 263 261
252 249 240 255 235 239 248 230 236 261 219 218 225 216 230 230 235 234 229 224 226 224 219 209 216 215 215 220 225 234 232 228 248 249 274 272 276 335 328 340 387 401 362 331 311 304 291 282 278 275 274 268 265 265
253 260 247 241 234 238 252 231 228 227 234 223 219 227 236 220 219 230 232 222 213 218 213 219 221 216 215 227 231 227 240 245 246 276 267 272 334 322 307 316 328 388 390 342 314 302 298 291 282 281 274 274 273 275
254 253 237 257 252 239 241 244 235 224 225 230 226 227 229 226 225 223 228 228 229 230 223 216 213 220 227 231 235 244 240 246 274 267 270 289 331 312 302 299 302 313 372 374 329 313 300 294 289 283 278 276 275 277
251 260 253 239 246 237 242 234 238 241 234 230 235 232 228 233 228 223 225 231 222 217 216 221 229 230 233 226 238 243 254 275 260 272 272 348 325 304 294 287 287 289 295 323 360 341 323 314 304 295 289 285 286 288
248 249 261 252 241 231 232 233 245 241 231 236 233 236 237 234 226 218 228 228 219 229 228 232 231 229 237 242 241 257 269 259 272 269 356 336 318 299 288 283 277 278 277 279 287 301 318 331 334 332 327 325 285 281
265 255 244 249 247 249 243 233 230 231 241 248 235 232 243 250 246 240 230 238 240 231 234 228 232 236 244 244 257 263 264 269 266 358 341 323 308 294 282 280 274 272 270 269 269 270 269 273 305 295 286 274 269 262
273 269 265 254 245 256 255 238 243 257 246 232 237 248 253 242 240 239 234 226 233 231 236 236 239 244 253 257 261 266 266 264 357 342 321 305 295 285 281 279 270 292 290 318 304 291 282 274 265 262 254 251 250 249
255 270 269 260 254 262 259 263 241 241 245 248 246 253 252 243 238 241 226 237 236 245 243 242 247 256 255 261 271 259 263 348 341 325 303 289 282 361 336 321 307 298 288 280 271 263 258 253 251 252 252 257 233 245
261 243 270 270 262 259 264 264 257 258 245 244 242 240 243 243 241 232 239 229 237 248 249 250 258 254 264 266 253 265 300 343 326 297 284 353 329 312 302 289 279 272 262 260 253 251 257 258 252 244 245 244 241 238
258 271 244 256 263 269 258 258 253 258 250 246 234 250 232 240 247 240 246 247 252 254 252 258 257 268 262 252 266 279 352 319 299 284 341 314 302 286 278 270 260 256 248 251 255 241 249 247 242 239 239 243 243 250
268 264 268 260 263 262 261 258 259 258 251 252 254 248 249 249 249 258 250 253 254 259 253 272 266 254 261 266 279 355 322 298 309 327 298 291 283 270 261 257 245 251 238 243 250 246 242 239 239 238 248 246 245 249
269 263 275 273 268 265 263 263 261 255 255 255 248 252 255 257 257 257 250 248 263 271 269 257 239 263 266 287 352 335 299 336 320 298 284 278 263 258 255 249 249 245 245 248 241 238 240 236 240 244 239 247 243 243
274 268 270 272 272 270 256 258 266 269 264 264 264 267 268 265 252 257 267 269 256 253 262 262 260 273 318 355 342 307 285 318 296 282 275 261 257 254 251 249 241 248 244 238 239 234 237 238 238 240 246 241 242 246
277 277 270 268 270 272 269 268 269 271 272 269 270 270 270 271 267 254 248 257 266 264 266 272 291 364 357 343 314 289 316 296 280 277 261 260 250 239 249 248 249 246 238 238 236 238 239 238 245 239 246 239 241 257
283 279 275 273 265 263 266 262 265 263 262 260 257 252 247 246 255 262 261 268 277 273 289 346 354 351 342 322 292 321 301 283 275 271 257 260 245 249 250 250 249 242 237 235 238 239 236 240 243 242 241 244 242 256
292 286 281 280 278 275 274 274 271 268 270 268 267 267 266 273 278 277 278 285 302 352 356 352 344 340 330 307 287 312 295 279 273 263 260 260 248 252 253 252 245 238 238 238 234 237 235 245 241 240 243 239 247 254
298 296 294 292 292 289 288 288 288 286 286 287 287 291 292 295 301 317 367 366 364 354 346 341 336 331 319 296 289 306 288 275 272 270 258 246 251 254 251 248 239 236 235 235 241 240 239 241 244 238 250 238 247 253
334 326 321 327 333 325 333 335 332 335 365 375 398 390 388 380 372 358 356 359 350 340 338 328 331 324 307 286 287 290 290 280 254 269 260 251 250 254 247 240 238 238 233 238 238 235 227 239 247 238 250 240 250 251
375 375 379 371 376 374 376 379 377 378 178 380 379 376 367 358 352 346 350 346 338 336 326 330 324 313 295 280 287 281 276 288 284 252 246 250 248 252 242 237 234 231 229 239 241 235 242 240 242 245 247 247 256 251
344 347 356 360 358 364 371 365 370 363 372 367 361 353 349 343 340 343 343 334 328 320 329 326 312 301 284 272 284 290 276 273 287 278 255 251 254 241 238 232 233 235 236 238 240 234 240 241 245 246 242 251 251 265
346 349 352 353 360 367 366 371 369 357 349 345 339 334 335 337 338 333 327 322 328 324 308 298 299 295 284 267 268 281 292 297 276 265 252 252 237 236 235 238 236 230 238 241 232 241 233 242 244 243 250 252 261 272
322 329 332 331 334 336 337 293 335 338 329 325 325 327 329 329 328 331 325 302 295 293 302 314 321 303 279 265 272 283 284 281 268 252 244 237 236 237 239 238 234 239 243 232 242 232 240 243 243 251 253 261 272 296
319 314 325 319 325 330 212 216 306 326 328 327 322 322 325 331 334 301 290 285 291 292 294 298 303 300 265 274 280 278 273 256 256 240 236 238 239 240 232 235 245 248 249 241 240 240 246 244 249 253 265 277 298 313
309 307 310 310 312 317 320 320 318 324 328 323 326 330 334 337 295 281 279 284 285 296 314 324 327 269 278 279 285 268 253 250 237 237 238 239 240 243 244 246 248 252 253 240 241 247 247 250 258 267 280 301 312 304
308 321 320 314 308 308 314 313 315 316 318 326 330 326 327 318 283 283 286 292 304 316 313 272 278 280 286 256 257 254 248 240 237 238 238 244 243 241 249 248 249 251 241 248 243 251 252 263 271 283 303 310 305 308